GFSFLT1_prec_cloud_003.txt.gz
Cloud_Cover
72 51 100 100 100 25 1 0 12 0 0 0 24 100 78 0 0 0 0 0 0 0 16 0 0 6 0 0 0 0 0 0 0
98 100 100 100 100 19 5 1 0 0 0 0 23 90 100 39 0 0 0 0 0 0 0 0 0 0 0 0 0 0 0 0 0
100 100 100 100 100 78 90 87 23 4 0 0 0 75 100 97 0 0 0 0 0 0 0 0 0 0 0 0 0 0 0 0 0
100 98 99 13 5 4 100 100 100 100 79 0 0 0 15 42 37 0 0 0 0 0 0 0 0 0 0 0 0 0 2 0 0
100 100 100 100 100 35 95 100 100 93 42 2 0 0 0 0 19 8 0 0 0 0 2 0 0 0 0 0 0 0 0 0 3
100 100 100 100 94 5 5 48 87 78 8 0 0 0 0 0 0 0 0 0 0 0 0 0 5 91 2 0 0 0 0 3 5
100 100 100 94 49 92 3 1 1 0 0 0 0 0 0 0 0 0 0 0 0 0 0 0 0 0 14 2 5 0 0 5 5
100 100 100 95 18 4 5 5 4 3 0 0 0 0 0 0 0 0 0 0 0 0 0 0 0 2 5 6 5 2 5 5 52
100 100 94 5 15 5 5 5 5 0 0 0 0 0 0 0 3 3 0 0 0 0 0 0 0 0 5 2 0 1 5 17 91
100 100 29 7 5 5 5 5 0 0 0 0 0 0 5 5 5 5 0 0 0 0 0 0 0 0 1 3 5 5 5 5 5
50 25 21 5 5 14 22 25 12 0 0 0 0 5 5 13 5 10 31 5 3 5 0 0 0 3 5 5 5 5 5 5 5
100 45 5 4 5 6 7 4 1 0 0 5 4 4 5 5 6 6 5 2 0 0 1 0 5 5 5 5 5 5 5 5 5
2 2 2 1 0 3 5 5 1 1 2 5 5 5 4 0 5 4 3 0 1 5 5 5 5 5 5 5 5 5 5 5 16
2 4 0 5 7 5 14 10 50 54 72 93 92 62 4 3 0 0 0 4 4 4 5 5 5 5 2 2 5 5 5 22 25
6 5 31 9 5 5 25 61 46 76 95 100 100 94 40 13 0 0 0 0 0 2 0 0 4 0 0 0 1 5 5 5 5
57 48 5 5 5 3 0 0 4 0 26 81 37 10 5 5 4 7 6 5 5 5 5 5 5 5 5 5 5 5 5 5 13
5 5 4 3 0 0 0 0 0 5 5 40 73 4 35 13 51 18 40 87 99 77 95 62 12 43 31 28 5 5 5 5 6
2 0 0 1 3 4 0 0 0 0 3 2 0 23 2 4 36 87 87 72 54 59 71 80 90 99 97 98 86 90 22 5 6
0 3 5 5 2 0 0 4 5 5 4 5 5 4 1 0 0 0 4 5 5 6 31 40 42 34 5 8 22 86 100 39 37
0 0 0 0 0 0 3 3 5 7 5 5 5 5 15 5 12 18 6 5 5 4 5 5 14 71 9 5 5 76 100 100 100

GFSFLT1_prec_cloud_006.txt.gz
Cloud_Cover
99 12 100 2 5 82 100 100 95 5 5 1 1 100 24 84 0 0 0 0 5 0 0 2 0 12 3 0 0 0 0 0 0
100 100 100 6 100 100 100 100 63 97 14 5 0 26 66 20 46 0 0 0 0 0 0 0 1 0 22 0 0 0 0 0 0
98 100 47 94 100 100 100 100 91 84 43 6 2 1 31 100 70 0 0 0 0 0 62 0 0 0 0 0 0 0 0 0 0
2 100 100 100 100 100 100 74 13 81 37 100 5 2 5 19 4 0 0 0 0 0 100 67 2 92 0 0 0 0 0 0 0
0 16 100 100 100 94 28 100 100 100 5 0 0 2 3 1 5 0 0 0 0 0 0 4 0 0 37 0 0 0 0 0 0
0 68 100 100 100 100 100 100 94 19 5 4 5 5 2 0 0 0 0 0 0 0 0 0 0 0 0 14 0 0 0 0 0
5 94 100 100 100 100 96 75 98 80 5 5 1 0 0 0 0 0 0 0 0 0 0 0 0 0 0 0 0 0 0 0 5
7 70 100 100 100 100 100 100 23 4 0 0 5 1 0 0 0 0 0 0 0 5 0 0 0 0 0 0 0 0 0 0 5
81 84 97 100 100 100 100 29 26 22 24 11 0 0 0 0 0 1 1 0 5 5 4 3 3 2 0 0 0 0 3 5 5
61 100 100 100 100 47 71 40 40 34 24 13 5 1 2 0 2 4 2 2 5 5 5 5 5 3 0 0 0 0 0 2 4
100 78 74 96 52 63 54 26 23 18 23 11 14 15 16 12 8 5 5 5 0 0 5 5 0 0 0 0 0 0 0 0 1
5 19 90 99 55 46 58 46 41 53 62 52 46 54 46 32 26 26 15 4 5 2 0 0 0 0 0 0 0 0 0 0 4
63 61 63 72 39 48 38 30 16 17 19 30 13 50 22 14 9 16 0 5 4 0 0 0 0 0 0 0 15 4 4 5 5
32 21 8 0 0 0 4 5 5 11 6 7 4 5 5 4 3 2 8 3 0 0 0 0 0 0 0 0 2 19 6 3 2
1 1 2 0 0 4 5 5 5 4 0 0 0 0 0 0 0 1 16 45 36 8 10 0 0 0 0 46 44 1 1 5 1
0 0 0 0 13 5 4 2 0 0 0 0 0 0 0 0 1 96 34 0 5 5 17 16 64 95 100 100 100 100 100 86 5
5 20 20 20 5 5 1 0 0 0 0 0 0 0 20 6 5 5 5 5 5 23 78 46 69 77 30 37 61 100 100 100 67
5 5 5 5 5 0 0 0 0 2 5 4 0 0 0 0 5 17 9 15 14 10 7 5 6 12 6 14 3 1 56 100 100
5 4 4 5 0 0 0 5 3 0 0 2 5 4 2 5 4 3 2 6 8 5 5 7 5 5 5 62 86 0 0 5 90
0 2 0 0 0 0 5 5 5 3 5 5 5 5 5 2 0 4 0 0 0 2 5 5 1 2 0 11 56 4 74 83 100

GFSFLT1_prec_cloud_009.txt.gz
Cloud_Cover
75 7 0 0 0 13 100 60 5 4 34 100 5 5 80 5 10 24 0 0 0 10 0 0 0 0 0 0 0 0 0 0 0
92 24 41 53 0 100 100 15 80 100 100 100 100 100 6 5 5 2 14 3 0 0 0 3 4 0 0 2 3 0 0 0 0
92 66 0 10 6 100 100 76 100 100 100 100 100 27 6 8 0 0 5 5 4 0 0 0 31 0 2 0 0 0 0 0 0
0 2 5 0 52 92 70 59 100 100 100 100 35 1 72 5 4 0 6 5 5 3 0 0 2 0 47 42 1 0 0 0 0
0 0 5 0 5 100 100 100 100 51 96 99 100 100 89 0 3 8 14 5 2 0 0 0 0 6 3 7 3 0 0 0 0
0 0 0 0 1 87 100 100 100 100 100 100 100 75 5 0 5 5 5 5 5 5 0 0 2 0 0 0 0 0 0 0 0
0 0 0 0 3 99 100 100 100 100 100 69 92 100 1 4 6 5 5 5 5 5 4 0 0 0 1 0 0 0 0 0 0
0 0 0 0 6 100 100 100 100 100 100 100 100 75 0 5 5 5 5 4 1 0 0 4 5 5 3 4 1 0 2 0 0
8 2 10 12 20 100 100 100 100 100 100 100 77 33 39 10 7 4 1 0 0 0 0 0 2 3 4 2 0 0 0 0 0
63 17 20 27 49 88 100 100 100 100 81 89 24 26 36 31 59 39 7 5 2 1 4 5 24 16 3 0 0 0 0 0 0
25 33 94 100 100 100 100 100 100 100 100 100 98 15 22 25 45 33 19 5 7 5 0 0 4 67 100 90 32 0 0 0 0
47 82 96 100 100 100 100 97 29 30 35 7 6 4 5 2 5 5 6 6 25 19 29 0 0 0 47 100 100 99 29 0 0
53 100 95 100 71 28 10 90 94 80 38 8 5 5 2 13 5 5 4 71 15 5 3 9 1 0 0 8 60 89 22 12 1
5 4 1 39 15 33 11 3 0 0 0 2 5 18 18 7 3 0 23 72 91 98 19 5 5 5 4 0 3 46 33 1 4
0 3 5 1 0 0 0 0 0 0 2 31 31 5 4 0 0 43 2 0 3 6 5 17 100 62 58 8 21 36 100 100 76
0 0 0 0 0 0 1 5 7 23 5 5 5 0 0 0 0 2 5 5 5 5 5 5 24 100 97 1 86 16 17 35 100
0 4 5 5 5 5 30 54 32 5 5 5 0 0 1 1 1 5 5 5 5 5 5 5 4 0 0 0 0 1 5 21 80
0 1 4 5 5 2 0 1 0 3 5 0 0 0 4 5 5 20 71 49 31 31 15 5 5 5 4 3 0 0 0 0 73
0 0 2 1 0 0 0 0 1 0 3 5 1 0 0 0 0 5 5 10 5 12 12 5 5 5 4 3 1 10 6 68 99
6 3 0 2 5 5 5 5 5 5 3 4 5 5 13 41 5 5 0 0 0 0 5 5 4 0 10 5 12 21 100 98 91

GFSFLT1_prec_cloud_012.txt.gz
Cloud_Cover
100 86 7 0 0 0 0 0 0 0 66 100 100 17 2 99 98 92 22 4 0 1 0 0 0 0 0 0 1 1 0 1 0
42 99 98 0 0 0 0 0 0 14 99 12 3 5 62 100 100 97 10 4 2 0 0 0 0 0 0 0 0 0 5 5 5
8 77 8 0 2 1 0 0 0 98 22 7 57 100 100 100 100 36 5 5 6 2 0 5 5 5 2 0 0 3 5 5 5
0 0 0 0 3 4 5 0 0 66 67 100 100 100 100 100 92 99 100 100 18 0 4 5 5 5 5 5 5 5 5 5 4
0 0 0 0 0 0 5 0 0 98 100 100 100 89 100 100 100 100 100 58 0 5 5 5 5 5 5 5 5 5 5 5 0
2 0 0 0 0 0 5 2 4 62 92 100 100 100 100 100 100 91 4 20 1 26 14 5 4 0 0 5 2 2 0 0 0
5 4 1 0 0 0 0 5 4 99 100 100 100 100 100 100 63 93 100 70 3 9 42 5 5 5 5 4 2 0 0 3 0
5 5 5 1 0 0 0 0 2 43 100 100 100 100 100 100 100 100 65 6 5 6 5 5 4 2 32 12 3 5 3 4 5
6 5 23 11 5 10 14 81 99 100 100 100 100 100 100 100 100 100 100 100 86 54 37 8 7 26 100 100 92 43 5 3 0
16 6 6 96 100 100 100 100 100 100 100 100 100 100 100 99 100 80 89 93 78 12 8 28 8 8 100 100 100 100 71 5 5
4 38 100 100 100 100 100 100 69 6 76 100 100 100 96 51 5 6 10 1 5 5 4 3 4 4 13 90 78 15 75 99 24
53 100 100 100 51 44 36 80 99 72 10 82 8 8 29 5 2 0 3 4 3 22 46 5 5 5 5 5 6 8 1 4 91
83 82 0 0 3 40 35 17 66 97 100 99 31 6 10 7 5 2 0 1 46 100 100 77 0 48 12 3 2 8 5 5 5
0 0 0 0 0 1 8 62 65 57 20 2 2 4 2 0 0 0 3 41 50 44 25 69 4 52 5 10 21 8 41 36 5
5 0 0 0 0 0 0 0 0 4 5 5 4 2 0 0 4 20 95 38 6 0 0 0 1 4 5 5 5 84 100 5 5
5 1 0 0 0 0 0 0 0 0 0 5 5 22 92 56 96 84 8 26 0 5 5 5 2 0 0 0 0 2 0 0 0
0 4 4 1 3 1 0 2 4 5 5 29 23 42 52 5 5 5 2 0 0 4 4 2 0 2 5 0 0 0 0 0 1
0 0 0 0 0 1 4 1 4 14 5 2 2 5 5 9 49 35 12 5 5 6 5 5 5 5 4 0 0 0 0 0 44
0 0 0 0 4 3 5 5 5 5 26 8 5 5 5 1 7 50 15 7 55 85 23 5 5 5 1 0 2 10 10 66 93
0 0 0 0 0 0 0 5 0 0 0 4 14 52 48 14 5 4 4 3 0 0 4 5 5 3 0 0 0 0 0 4 5

GFSFLT1_prec_cloud_015.txt.gz
Cloud_Cover
45 75 0 0 0 0 0 0 0 0 0 0 0 0 23 74 100 100 13 6 95 99 43 5 0 0 0 0 1 0 32 1 0
0 100 6 0 0 0 0 0 0 0 6 9 7 7 34 100 100 78 91 100 100 100 5 1 4 3 0 0 0 0 1 57 0
10 48 0 0 0 0 1 0 0 1 5 6 7 5 97 100 36 100 100 100 100 100 95 85 5 4 0 0 2 5 2 0 0
0 0 0 0 0 0 2 2 68 4 5 3 2 41 100 100 100 95 100 100 100 13 5 95 92 3 0 4 30 5 51 74 7
0 0 0 0 0 0 0 0 5 5 5 5 5 43 100 100 90 100 100 100 100 94 100 83 6 6 0 5 5 7 33 98 100
5 5 1 2 3 0 0 0 0 0 12 6 5 59 99 100 91 100 100 100 100 99 62 4 52 50 2 4 5 2 0 73 92
2 1 2 4 0 0 0 0 0 0 5 5 10 53 100 100 100 100 100 100 84 94 97 77 14 3 1 8 56 48 67 3 7
4 8 73 52 54 5 0 5 31 74 94 100 98 100 100 100 100 100 100 100 100 100 100 100 24 1 2 50 86 100 100 29 10
5 5 4 4 42 90 100 100 100 100 100 93 41 33 66 100 100 100 100 100 100 100 66 96 0 2 5 8 5 5 5 84 98
18 55 63 53 98 94 100 100 65 32 43 6 5 5 5 83 100 100 100 100 100 78 5 5 4 4 5 5 4 5 5 5 26
96 64 91 100 100 100 71 5 5 12 89 46 8 6 24 81 100 100 100 100 55 8 5 5 93 100 36 68 74 63 5 5 15
100 100 100 100 48 0 0 0 0 31 57 85 99 92 10 43 89 100 100 100 58 5 1 86 98 97 1 0 2 7 5 50 5
100 68 5 0 0 0 0 0 0 0 16 30 32 11 39 74 90 44 7 1 5 5 4 3 0 71 1 94 5 5 3 4 5
9 7 5 5 0 0 0 0 0 0 0 0 3 4 5 5 4 5 5 1 0 0 0 2 4 5 62 46 26 6 0 2 1
87 100 97 49 5 4 0 0 0 0 0 0 0 0 0 0 0 0 0 0 4 5 5 5 5 5 19 20 95 4 4 4 0
49 29 5 0 0 2 0 0 0 0 0 0 0 0 0 2 0 0 5 5 5 5 5 5 5 5 2 0 2 0 0 0 4
5 5 4 0 0 0 0 0 0 0 0 0 0 0 1 0 0 0 0 0 0 4 5 4 4 3 4 5 4 4 3 3 4
5 5 5 5 2 1 0 0 0 0 0 0 0 0 1 3 11 8 26 27 23 15 46 66 68 69 25 5 5 5 5 0 2
0 0 0 0 0 0 0 0 0 0 0 0 0 0 0 0 0 6 86 100 100 100 100 100 77 42 11 5 5 5 5 4 3
0 0 0 0 0 5 5 0 0 0 0 0 0 0 0 0 0 0 0 0 6 6 11 20 7 7 5 5 0 0 0 0 5

GFSFLT1_prec_cloud_018.txt.gz
Cloud_Cover
100 0 0 0 0 0 0 0 0 0 0 0 0 0 0 0 0 0 65 100 100 100 18 5 13 74 57 2 4 0 42 14 54
91 0 0 0 0 0 0 0 0 0 6 2 99 18 5 5 4 5 5 83 100 100 30 75 95 100 73 22 7 10 4 14 98
0 43 0 0 0 0 0 4 0 2 5 4 3 3 5 5 5 4 5 28 100 98 100 92 100 100 100 13 59 71 86 86 50
0 0 0 0 0 0 0 0 0 5 34 2 27 39 5 5 5 3 16 100 100 43 88 100 100 100 100 80 9 11 95 100 100
5 5 1 0 2 0 0 0 0 0 0 1 48 57 46 66 5 5 77 100 100 100 100 100 100 100 100 86 47 5 16 39 98
0 0 4 42 54 5 9 5 4 0 0 0 0 2 87 44 22 5 93 100 100 100 100 100 100 100 100 65 93 71 100 53 31
0 0 3 5 28 41 59 7 14 5 3 24 96 99 100 99 96 98 100 100 100 100 100 100 100 100 100 100 80 91 95 66 100
0 0 0 5 4 13 94 98 73 99 11 16 5 3 0 3 5 5 9 100 100 100 100 100 100 100 100 100 100 100 6 11 6
1 9 14 91 100 100 97 100 100 99 100 100 75 9 5 0 0 5 5 27 76 100 100 100 100 100 100 100 95 100 32 76 38
10 72 68 86 100 100 100 100 31 5 14 64 5 50 28 80 26 5 5 5 8 88 100 100 100 100 100 100 100 41 5 5 4
64 93 100 100 100 100 80 5 6 23 4 5 5 3 5 35 63 30 5 5 5 5 17 100 100 100 95 78 100 49 60 10 61
100 100 100 100 30 1 0 0 0 0 0 0 0 0 0 5 5 5 5 27 25 6 17 96 99 40 17 38 99 20 5 39 57
100 83 13 9 6 5 5 3 0 0 0 0 0 0 0 0 0 0 2 5 11 5 5 5 5 7 5 5 5 1 1 4 4
96 74 87 86 44 5 5 5 4 0 0 0 0 0 0 0 0 0 0 0 0 0 0 0 0 0 0 2 0 0 1 1 2
49 69 30 5 5 15 10 9 28 20 4 0 0 0 0 0 3 2 0 0 0 0 0 0 0 0 0 0 0 2 4 5 5
48 7 5 5 5 5 5 5 0 1 0 0 0 0 0 0 0 0 0 0 0 0 0 0 0 0 0 0 0 0 2 5 5
0 3 1 0 0 0 0 0 0 0 0 0 0 0 1 0 0 0 0 0 0 0 0 0 3 4 5 5 5 4 0 0 2
0 0 0 0 0 0 0 0 0 0 0 0 0 0 0 0 4 1 0 0 1 3 3 4 4 4 4 5 5 5 5 5 5
0 0 0 0 0 0 0 0 0 0 0 0 0 0 0 0 0 0 0 5 5 5 5 5 5 5 5 5 5 5 5 5 5
0 0 0 0 0 0 0 0 0 0 0 0 0 0 0 0 0 0 0 0 5 5 0 0 5 5 5 5 4 4 5 19 34

GFSFLT1_prec_cloud_021.txt.gz
Cloud_Cover
32 0 0 0 0 0 0 0 0 0 0 0 0 0 0 0 0 2 1 1 2 2 0 31 8 88 100 100 5 12 62 70 47
100 0 0 0 0 0 0 0 0 0 0 5 0 50 5 5 0 2 5 5 5 5 1 86 100 100 100 100 80 26 99 100 11
6 7 5 0 0 0 0 0 0 0 0 5 4 2 16 2 4 1 32 30 15 5 5 35 73 96 100 100 99 93 100 100 100
67 5 5 0 0 0 0 0 0 0 0 1 0 1 67 5 6 5 23 94 100 12 5 10 87 100 100 94 97 100 100 100 100
32 3 0 0 0 2 6 6 2 0 0 0 0 1 0 1 14 93 100 6 96 88 12 5 16 98 100 100 100 100 100 100 100
5 0 0 0 0 2 4 70 7 26 50 90 86 88 28 100 30 1 75 99 84 54 6 83 100 100 100 100 100 100 100 100 100
5 0 5 5 3 4 5 7 85 46 50 25 54 36 5 4 2 0 0 55 71 40 22 49 100 100 100 100 100 100 100 100 100
0 0 0 0 0 30 13 72 100 100 40 20 84 78 92 92 80 5 3 0 8 8 25 12 96 100 100 100 100 100 100 100 100
0 0 6 3 100 100 100 100 100 78 55 58 5 10 72 100 100 100 97 40 10 2 5 23 5 100 100 100 100 100 100 100 100
2 80 100 97 100 100 100 100 8 4 10 2 0 3 5 0 6 43 67 100 100 96 72 16 5 5 5 62 100 100 100 100 100
90 100 100 100 100 92 43 1 5 4 0 0 0 0 0 0 0 0 2 15 27 31 38 37 31 10 5 5 39 94 100 100 100
100 100 100 100 34 2 4 0 5 5 5 5 0 0 1 0 0 0 0 0 0 0 5 5 6 5 5 8 6 5 5 6 32
100 100 57 13 5 5 12 15 5 5 4 5 5 5 4 2 0 0 0 0 0 0 0 0 0 0 0 2 0 1 4 5 4
100 92 8 63 5 8 5 8 5 5 5 5 5 4 0 1 0 0 0 0 0 0 0 2 2 0 0 0 0 0 1 0 0
44 5 5 5 0 0 1 4 0 0 0 0 0 0 0 0 0 0 0 0 0 0 0 0 0 0 0 0 0 0 0 0 0
5 5 5 1 0 0 0 0 0 0 0 0 0 0 0 0 0 0 0 0 0 0 0 0 0 0 0 0 0 0 0 0 0
0 0 0 0 0 0 0 0 0 0 0 0 0 0 0 0 0 0 0 0 0 0 0 0 0 0 0 0 0 0 0 0 0
0 0 0 0 0 0 0 0 0 0 0 0 0 0 0 0 0 0 0 0 0 0 0 0 0 0 0 0 0 0 0 0 0
0 0 0 0 0 0 0 0 0 0 0 0 0 0 0 0 0 0 5 4 2 5 5 5 5 5 5 5 5 5 5 4 4
0 0 0 0 0 0 0 0 0 0 0 0 0 0 0 0 0 0 0 0 5 5 5 5 5 5 5 5 5 0 0 2 5

GFSFLT1_prec_cloud_024.txt.gz
Cloud_Cover
100 5 2 0 0 0 0 0 0 0 0 0 0 0 0 0 0 0 0 0 3 5 5 4 6 4 3 0 5 91 69 99 9
100 54 8 3 4 1 3 4 0 0 0 0 0 0 0 0 0 3 25 3 2 76 6 5 7 5 44 18 100 100 100 100 49
100 100 100 88 14 5 5 0 1 11 9 11 0 0 0 4 0 4 47 5 5 30 100 90 100 14 44 95 62 100 100 100 99
100 100 100 6 3 0 2 0 6 0 0 0 0 0 0 0 1 1 70 8 5 12 74 100 100 98 16 17 5 73 100 100 100
100 91 72 25 5 2 0 0 0 0 4 6 5 96 100 48 20 3 10 0 3 100 100 100 100 100 100 97 5 42 100 100 100
99 73 55 5 5 5 0 0 0 36 47 5 5 0 2 3 1 0 0 1 0 15 7 100 80 100 100 100 35 100 100 100 100
43 72 10 5 5 5 1 1 36 100 77 5 5 5 3 5 71 58 16 5 5 5 3 0 89 100 99 39 96 100 99 100 100
48 26 5 4 5 14 66 100 100 100 26 0 0 1 0 2 5 13 100 100 99 84 82 5 4 92 100 96 77 76 100 100 100
40 54 7 12 98 100 100 100 67 0 0 0 0 5 3 0 0 0 0 2 17 50 90 97 100 100 53 9 70 96 100 100 100
24 81 98 100 100 100 80 16 2 0 0 0 0 5 3 5 5 0 0 0 0 0 0 0 7 47 92 95 100 98 100 99 100
100 100 100 100 100 76 5 5 2 0 0 0 0 5 5 5 4 3 5 5 0 0 0 0 0 0 1 3 5 4 5 7 100
100 100 100 100 86 5 5 6 0 1 4 3 0 0 0 0 0 0 0 2 0 0 0 0 0 0 0 0 0 3 0 2 2
100 100 100 61 32 54 5 20 0 0 0 0 0 0 0 0 0 0 0 0 0 0 0 0 0 0 0 0 0 0 0 0 0
97 98 89 96 60 25 4 3 0 0 0 0 0 0 0 0 0 0 0 0 0 0 0 0 0 0 0 1 1 2 4 5 7
48 21 34 24 8 6 5 1 0 0 0 0 0 0 0 0 0 0 0 0 0 0 0 0 0 0 0 0 0 0 0 0 0
5 5 5 5 4 2 0 0 0 0 0 0 0 0 0 0 0 0 0 0 0 0 0 0 0 0 0 0 0 0 0 0 0
44 24 2 0 0 0 0 0 0 0 0 0 0 0 0 0 0 0 0 0 0 0 0 0 0 0 0 0 0 0 0 0 0
5 5 0 0 5 0 0 0 0 0 0 0 0 0 0 0 0 0 0 0 0 0 0 0 0 0 0 0 0 0 0 0 0
5 2 2 5 2 0 0 0 0 0 0 0 0 0 0 0 0 0 0 4 2 0 0 2 2 0 0 0 0 0 0 0 5
4 5 5 3 0 0 0 0 0 0 0 0 0 0 0 0 0 0 0 0 2 0 0 0 0 0 0 0 0 0 1 5 5

GFSFLT1_prec_cloud_027.txt.gz
Cloud_Cover
0 37 97 86 5 5 0 2 1 4 0 0 3 33 0 0 0 0 0 2 3 5 0 0 0 9 7 5 5 5 0 35 31
11 0 92 100 6 36 58 96 100 88 5 1 0 0 0 0 0 0 0 0 1 14 16 9 5 49 7 63 98 75 15 44 56
26 2 60 100 96 100 100 100 67 5 3 0 0 0 0 0 0 0 0 0 0 13 100 11 10 38 99 54 100 100 91 100 38
10 35 71 100 100 100 100 100 37 6 5 4 0 3 0 0 0 0 0 0 0 1 5 6 9 7 6 15 93 100 82 99 81
94 100 37 35 99 5 5 5 12 19 5 46 0 0 0 0 0 2 5 2 0 1 1 6 0 53 40 88 100 100 100 5 76
100 100 94 76 50 48 87 6 5 7 86 7 0 0 0 1 0 5 0 4 5 63 6 4 1 2 54 6 91 27 50 100 47
5 50 100 100 95 60 5 22 23 100 36 5 2 5 2 1 2 0 0 0 0 0 5 5 100 78 7 25 30 87 100 98 33
69 70 16 96 83 55 74 100 73 10 5 1 0 0 0 0 0 0 0 0 0 0 0 3 6 5 5 7 65 8 76 41 5
42 73 53 61 89 100 100 77 5 5 5 5 4 0 0 0 0 2 5 4 5 0 0 0 0 0 0 0 3 6 57 27 7
59 79 100 100 100 100 56 5 5 19 11 5 5 4 0 0 0 0 4 3 0 0 0 0 0 0 0 0 0 0 2 33 88
98 100 100 100 98 100 5 5 14 67 30 5 5 3 0 0 0 0 0 0 0 0 0 0 0 0 0 0 0 0 0 0 1
100 100 100 100 100 20 5 5 49 6 5 5 5 0 0 0 0 0 0 0 0 0 0 0 0 0 0 0 0 0 0 0 0
100 100 100 100 71 12 7 69 5 5 9 18 5 0 0 0 0 0 0 0 0 0 0 0 0 0 0 0 0 0 0 0 0
100 100 100 75 73 61 99 51 12 5 5 10 1 0 0 0 0 0 0 0 0 0 0 0 0 0 0 0 0 0 0 0 0
100 100 100 97 100 97 100 69 40 5 5 0 0 0 0 0 0 0 0 0 0 0 0 0 0 0 0 0 0 0 0 0 0
100 100 100 100 100 100 100 100 12 4 0 0 0 0 0 0 0 0 0 0 0 0 0 0 0 0 0 0 0 0 0 0 0
100 100 100 100 100 99 68 6 2 0 0 5 0 0 0 0 0 0 0 0 0 0 0 0 0 0 0 0 0 0 0 0 1
100 100 100 100 74 23 5 2 0 1 5 2 0 0 0 0 0 0 0 0 0 0 0 0 0 0 0 0 0 0 0 0 2
98 100 100 98 90 5 5 5 3 5 5 0 0 0 0 2 5 1 0 0 0 0 3 2 0 0 0 0 0 0 0 1 5
87 45 12 64 8 5 5 5 5 5 0 0 0 0 0 0 0 4 0 2 5 5 5 5 5 5 0 0 0 0 0 5 5

GFSFLT1_prec_cloud_030.txt.gz
Cloud_Cover
0 0 3 2 0 0 5 5 5 3 28 32 100 96 73 5 27 5 0 1 0 0 0 0 0 2 4 48 5 3 5 3 9
0 0 0 5 0 2 4 24 100 100 100 100 100 95 36 2 14 6 1 10 0 6 24 0 0 2 17 45 86 100 5 47 100
4 0 0 83 97 96 88 100 100 100 100 86 21 5 5 34 60 35 27 3 0 1 46 11 2 0 55 90 22 72 98 20 91
5 5 5 5 15 25 100 100 85 80 100 45 92 5 2 5 42 3 11 0 0 4 80 2 1 19 37 2 1 13 100 100 90
6 66 99 83 100 92 100 100 100 86 5 5 5 5 5 6 5 0 0 0 0 7 0 1 12 5 4 34 23 11 47 56 100
95 100 100 89 39 26 48 53 80 67 29 6 9 13 11 5 3 0 0 0 0 0 0 0 0 7 7 8 9 39 7 6 5
100 100 100 100 75 100 39 13 26 93 44 27 13 20 13 5 2 2 0 0 0 0 0 0 1 0 0 0 4 4 5 5 5
100 82 96 48 9 32 5 63 46 29 51 22 5 36 6 5 5 0 0 0 0 0 0 1 3 2 0 0 0 0 1 5 3
65 74 52 11 8 20 97 64 50 39 15 16 5 10 5 5 5 3 0 1 0 0 0 0 2 0 0 0 1 4 0 0 0
12 11 12 14 60 98 51 90 89 84 13 5 5 5 18 5 5 5 3 2 0 0 0 0 0 0 0 0 0 0 0 0 0
56 78 100 100 95 80 68 100 94 38 20 5 8 40 35 5 7 5 5 5 0 0 0 0 0 0 0 0 0 0 0 0 0
39 95 100 100 100 98 69 19 17 56 6 51 88 95 14 27 5 5 22 3 0 0 0 0 0 0 0 0 0 0 0 0 0
100 100 100 97 100 100 84 53 50 30 73 100 100 81 96 38 11 10 3 0 0 0 0 0 0 0 0 0 0 0 0 0 0
5 92 68 99 100 100 100 100 99 100 100 100 100 90 98 69 78 5 0 5 0 0 0 0 0 0 0 0 0 0 0 0 0
64 99 22 52 100 100 100 100 100 100 100 100 100 100 96 65 22 0 5 1 0 0 0 0 0 0 0 0 0 0 0 0 0
100 89 6 99 100 100 100 100 100 100 100 100 100 67 55 8 0 2 5 0 0 0 0 0 0 0 0 0 0 0 0 0 0
100 88 38 74 99 100 100 100 100 100 100 98 49 21 0 1 1 5 5 0 0 0 0 0 0 0 0 0 0 0 0 0 1
52 100 100 96 81 92 100 100 100 99 96 32 3 2 0 2 4 0 0 0 0 0 0 0 0 0 0 0 0 0 0 0 2
100 98 100 100 99 100 100 96 100 68 5 5 5 5 5 5 5 4 0 0 0 0 0 0 0 0 0 0 0 0 0 0 5
0 63 6 47 48 5 10 100 73 5 5 5 5 5 5 5 5 5 0 0 0 0 0 5 5 5 0 0 0 0 0 5 5

GFSFLT1_prec_cloud_033.txt.gz
Cloud_Cover
0 0 0 0 0 0 0 0 0 0 0 0 2 84 99 100 100 100 97 16 4 0 3 0 0 0 1 81 0 0 0 0 5
1 0 0 0 0 0 0 0 3 56 10 9 63 95 95 97 93 32 59 40 2 1 9 24 2 0 0 1 0 1 8 40 81
11 5 5 2 0 1 0 7 4 14 73 58 100 100 58 46 100 100 100 28 1 2 2 8 16 8 9 7 0 0 3 35 17
37 33 21 5 5 4 8 8 93 52 71 100 89 20 36 47 84 22 60 5 5 17 16 2 0 7 4 19 2 1 24 4 0
100 100 94 86 45 22 6 19 100 100 9 7 5 5 2 18 14 46 5 5 5 5 23 0 0 11 21 8 2 5 5 2 38
100 100 100 100 70 30 50 99 100 100 89 43 60 40 5 5 5 27 5 5 5 5 5 8 23 12 0 6 5 4 2 0 0
100 100 100 100 100 100 100 100 100 81 83 16 7 14 18 5 5 10 5 5 7 5 5 0 0 0 0 1 5 5 5 0 0
100 100 100 100 100 100 100 93 60 14 5 10 5 5 17 50 16 6 20 5 5 5 23 4 5 0 0 0 0 5 5 5 0
88 100 100 100 100 72 11 36 62 11 8 78 10 31 56 88 67 32 5 12 5 5 5 5 5 1 0 0 0 0 0 0 0
5 34 98 97 83 53 39 51 29 50 10 22 16 74 98 97 69 17 7 5 5 5 5 5 5 3 0 0 0 0 0 0 0
79 45 54 51 34 31 47 23 39 34 41 80 80 67 65 5 5 55 52 97 85 16 51 76 6 1 0 0 0 0 0 0 0
100 100 96 46 16 7 20 6 6 5 5 22 42 38 61 56 77 98 100 100 100 6 99 14 5 0 0 0 0 0 0 0 0
4 61 23 27 23 10 5 5 5 12 65 100 94 100 100 100 100 100 100 100 91 70 85 11 5 0 5 0 0 0 3 0 0
0 8 56 27 9 5 5 5 5 6 63 92 100 100 100 100 100 100 100 95 81 87 10 39 0 3 3 0 0 0 0 0 0
0 0 10 99 6 16 29 56 5 34 92 100 100 100 100 100 100 100 91 29 53 9 4 0 0 5 5 0 0 0 0 0 0
0 6 65 94 56 48 54 86 71 6 16 32 100 100 100 100 92 39 87 34 5 0 5 0 5 5 2 0 0 0 0 0 0
100 62 100 100 87 20 51 64 49 41 70 26 5 32 87 14 63 53 5 0 5 1 0 5 3 4 0 0 0 0 0 0 2
100 100 100 98 93 47 6 53 89 64 20 5 6 5 26 17 5 5 5 0 0 3 5 5 5 3 0 0 0 0 0 0 5
100 100 100 100 91 92 36 12 17 12 41 22 5 5 5 5 16 5 2 0 0 0 2 3 1 0 0 0 0 0 0 0 5
100 100 100 100 100 100 47 0 0 5 4 5 5 5 32 5 1 0 0 0 0 4 4 5 5 1 0 0 0 0 0 5 5

GFSFLT1_prec_cloud_036.txt.gz
Cloud_Cover
0 0 0 0 0 0 0 0 0 0 0 0 0 0 2 5 76 24 90 100 5 5 52 5 0 0 3 3 0 0 0 0 0
5 4 5 4 4 2 4 4 0 0 0 0 0 0 1 6 100 100 100 100 2 3 90 90 25 18 0 0 0 0 0 0 1
5 19 30 5 18 65 12 5 5 5 5 3 2 0 25 65 99 100 100 84 3 12 11 5 9 8 3 54 49 6 8 7 2
74 82 52 16 14 16 70 58 16 5 5 5 4 5 22 98 95 19 20 5 5 14 15 8 2 11 2 6 1 2 30 8 24
99 100 100 100 81 7 13 34 99 100 19 100 6 59 100 100 100 56 33 5 19 16 5 8 35 53 20 9 20 32 37 12 14
100 100 97 100 100 93 100 100 100 100 93 84 100 100 100 100 71 36 23 5 5 10 24 12 12 5 5 5 3 8 2 16 4
96 100 100 100 100 100 100 100 100 100 100 100 100 100 100 47 5 7 11 20 7 40 52 17 5 5 5 3 5 5 4 0 0
3 8 100 100 100 100 100 100 100 100 100 100 100 63 6 49 56 5 57 5 11 100 35 5 5 5 12 5 5 5 0 0 0
0 3 22 38 92 95 100 100 100 100 100 100 100 100 15 16 10 7 45 38 37 74 9 5 5 12 53 8 5 5 5 0 0
0 4 66 59 36 20 5 5 25 76 84 64 48 40 6 22 84 66 57 34 5 82 100 45 12 92 100 66 21 5 5 3 0
0 5 5 5 57 100 73 25 26 12 5 7 46 7 8 29 38 47 16 18 49 45 100 100 100 100 100 100 37 61 5 5 0
5 3 5 5 5 5 61 87 99 45 5 5 5 5 4 5 5 10 100 100 91 100 100 100 100 100 100 95 34 38 31 2 0
4 5 3 0 2 5 5 5 5 5 5 5 5 5 5 5 81 95 82 100 100 100 100 100 100 100 85 48 59 55 0 0 5
0 2 5 2 5 5 5 5 5 5 5 5 51 59 8 5 74 94 100 100 95 100 59 100 100 63 31 66 5 0 3 1 4
0 0 0 0 0 0 0 23 89 6 5 20 100 100 86 54 5 12 37 95 12 37 97 68 6 7 5 3 0 0 4 5 5
0 0 5 5 3 0 22 5 51 58 5 8 39 94 100 58 5 5 5 5 5 5 27 6 5 2 0 0 0 0 0 2 5
0 3 5 5 100 98 99 92 100 66 9 5 5 17 86 15 5 5 5 5 5 4 5 5 0 0 0 0 0 0 0 0 4
2 0 8 28 100 100 100 100 89 100 46 41 12 42 18 16 5 5 5 5 5 5 5 0 0 0 0 0 0 0 4 5 5
76 58 45 100 100 100 100 98 100 100 99 55 31 8 0 2 4 5 5 5 5 5 0 0 0 0 0 0 0 0 0 0 4
100 98 89 84 100 89 100 99 100 100 99 100 97 6 5 0 0 0 1 0 0 3 0 0 0 0 0 0 0 0 0 0 5

GFSFLT1_prec_cloud_039.txt.gz
Cloud_Cover
0 0 5 0 0 0 0 0 3 2 1 0 0 2 0 0 99 100 98 4 4 17 100 5 5 5 4 0 0 0 0 0 0
0 0 0 3 2 1 1 5 5 5 5 5 5 5 5 3 98 46 100 100 45 45 87 68 20 13 14 4 0 1 2 0 0
5 5 5 5 5 5 15 20 60 33 6 4 5 5 5 7 100 90 78 0 35 100 59 6 16 10 14 5 39 15 18 0 28
60 42 16 5 5 5 5 5 16 63 6 63 4 3 5 5 9 96 25 16 100 100 41 26 30 48 20 21 46 44 82 81 81
7 89 100 100 100 100 98 62 69 7 6 7 62 100 31 91 21 99 59 100 100 100 27 28 87 35 100 87 64 62 32 17 36
8 29 78 78 54 90 100 100 100 100 100 100 100 100 98 51 65 95 88 100 100 60 44 4 6 6 29 88 8 5 4 5 7
0 0 0 14 41 94 78 78 100 95 95 100 38 98 97 100 99 72 76 54 44 57 51 11 5 34 25 57 71 5 5 5 5
0 14 0 0 0 0 1 5 67 99 95 100 100 100 100 100 96 100 90 43 95 59 36 9 5 50 5 75 92 6 59 11 97
0 3 0 0 0 0 0 1 5 5 84 87 91 45 40 68 79 83 88 64 65 48 11 5 5 5 5 20 10 5 17 100 100
5 0 0 0 1 4 0 0 0 1 5 10 28 15 5 5 5 5 5 5 34 5 44 48 13 5 39 12 24 5 100 100 100
5 1 0 0 0 4 0 2 0 0 0 1 6 21 5 5 5 10 5 1 0 6 46 54 100 100 99 42 37 30 100 100 100
5 5 0 0 0 0 1 4 5 1 0 0 0 0 0 2 5 5 5 4 2 5 48 100 100 100 100 74 100 100 100 100 97
5 1 0 0 0 0 0 0 0 3 5 3 5 5 5 5 5 76 44 10 3 5 40 100 100 100 100 100 100 100 100 99 48
0 0 0 0 0 0 0 0 0 0 0 4 5 5 5 5 10 36 8 5 5 5 31 79 85 33 44 82 96 98 24 5 5
0 0 0 0 0 0 0 0 0 0 0 0 5 52 12 5 13 14 5 64 17 9 5 41 7 59 9 5 16 22 5 5 1
0 0 0 0 2 0 0 3 5 24 39 5 23 10 57 5 5 5 5 5 25 5 5 65 100 86 71 17 5 2 0 0 3
0 0 3 0 0 0 1 17 46 38 98 93 91 98 75 5 6 43 18 49 61 6 0 59 22 5 5 5 0 0 0 0 2
3 1 63 59 5 12 50 4 100 92 96 100 99 100 80 73 79 81 64 10 22 2 5 5 3 1 0 0 0 0 0 0 0
91 22 4 0 22 31 100 80 100 100 100 100 100 100 100 100 100 100 100 100 71 5 5 2 0 0 0 0 0 0 0 2 3
53 61 37 98 100 98 60 55 78 100 100 100 98 100 94 100 88 100 98 83 37 50 39 11 1 0 0 0 0 0 0 0 0

GFSFLT1_prec_cloud_042.txt.gz
Cloud_Cover
0 0 0 1 0 0 0 0 0 0 0 0 0 0 0 24 6 91 24 0 8 0 100 0 0 0 35 93 5 4 2 1 0
0 0 0 0 0 0 0 0 0 1 0 1 3 1 3 5 5 17 28 66 1 92 56 1 93 19 97 99 22 6 13 3 0
0 0 0 3 4 5 5 4 5 5 5 5 5 21 49 13 5 17 5 5 5 21 16 16 31 55 100 100 96 100 97 50 63
0 0 0 0 5 5 18 52 54 66 50 22 72 85 64 62 5 19 5 6 5 68 31 25 89 100 100 100 100 100 100 100 99
0 0 0 5 5 5 5 5 5 35 96 69 98 100 72 99 100 68 85 98 91 99 100 97 53 54 100 94 55 89 99 98 100
0 0 0 0 3 5 5 86 30 95 100 39 93 100 100 99 56 22 91 100 91 84 97 79 74 100 56 40 40 83 9 50 11
1 0 0 0 0 0 0 2 4 5 27 98 100 100 100 100 100 100 74 95 100 88 100 100 100 80 56 61 7 44 6 5 5
5 17 13 4 0 0 0 0 0 0 0 5 6 100 100 98 71 12 53 17 35 100 12 3 48 14 16 8 23 7 31 53 5
26 22 20 5 0 0 0 0 0 0 0 0 1 5 5 5 5 5 5 5 33 13 4 3 2 2 0 5 5 5 89 99 17
8 12 15 2 0 0 0 0 5 5 1 0 0 0 0 0 0 1 5 5 7 12 6 5 4 1 0 5 5 46 93 100 100
5 13 5 4 4 0 0 2 4 5 3 5 4 0 0 0 0 0 3 5 5 5 5 4 0 0 5 5 9 70 89 63 100
5 3 5 5 3 4 0 0 0 0 0 0 0 0 0 0 3 1 5 5 5 5 5 5 5 5 5 5 72 100 34 30 100
3 1 0 1 0 0 0 0 0 0 0 0 0 0 1 5 5 5 5 6 73 20 5 5 5 5 80 100 100 100 100 63 24
0 2 0 0 0 0 0 0 0 0 0 1 2 0 0 0 11 63 24 5 5 64 8 5 5 5 5 21 88 100 99 100 58
0 0 0 0 0 0 0 0 0 0 0 4 5 5 32 0 31 15 47 11 5 25 5 5 5 5 9 79 9 8 100 100 86
0 5 0 0 0 0 0 0 0 0 4 5 5 67 100 100 100 100 88 48 18 12 5 84 9 8 12 24 5 21 5 5 5
48 44 37 5 2 5 0 0 0 2 51 5 5 29 72 99 100 100 100 100 100 100 100 99 93 52 55 6 5 5 5 0 0
100 100 70 68 54 44 1 4 12 62 37 9 5 82 41 61 100 100 100 100 100 100 100 100 100 100 100 9 5 5 5 2 0
100 100 96 98 100 99 33 27 45 100 15 55 25 71 97 93 100 85 49 90 100 100 100 100 100 87 78 31 5 5 5 5 5
100 100 100 100 100 48 100 94 94 100 65 76 45 32 46 74 100 100 100 100 100 100 100 100 99 100 73 100 71 81 82 77 38

GFSFLT1_prec_cloud_045.txt.gz
Cloud_Cover
0 0 0 69 4 0 0 0 0 0 0 0 0 0 0 0 0 0 0 1 0 0 35 5 5 9 0 2 2 5 3 5 27
0 0 0 0 0 0 0 0 0 0 0 0 0 5 4 3 4 5 5 6 9 60 7 56 21 10 8 6 13 42 5 6 15
0 0 0 0 2 0 0 1 0 0 0 5 3 5 5 5 5 29 77 13 6 5 7 49 48 68 100 96 97 90 78 63 72
0 0 0 0 70 0 2 0 0 0 0 1 0 0 13 46 47 26 14 100 44 17 100 82 34 21 100 100 100 100 100 100 100
0 0 0 12 7 10 12 1 0 0 5 5 5 5 35 33 90 98 100 99 90 95 100 59 95 100 72 98 85 63 100 100 100
0 0 0 0 6 9 0 0 0 0 0 2 10 38 75 54 63 92 100 100 91 69 99 100 99 100 88 44 100 100 79 62 52
0 4 0 0 0 0 0 0 0 0 0 0 5 5 3 4 5 5 48 97 73 45 85 98 94 90 5 2 2 0 0 5 5
12 10 8 6 0 0 0 0 0 0 0 0 0 0 0 0 0 3 11 32 22 50 3 4 5 14 5 5 5 2 0 0 2
28 24 24 22 6 0 0 0 0 0 0 0 0 0 0 0 0 0 0 0 34 3 0 0 5 5 2 4 0 0 1 0 0
27 26 28 31 6 5 2 0 0 0 0 0 0 0 0 0 0 0 0 0 0 0 1 0 2 0 1 0 0 1 0 5 5
22 31 23 13 6 5 5 0 0 0 0 0 0 0 0 0 0 0 0 0 0 1 5 2 5 5 5 5 4 5 5 5 5
4 15 24 6 5 5 3 0 0 0 0 0 0 0 0 0 0 0 0 3 5 5 5 5 5 5 29 43 5 11 45 71 95
0 2 4 4 3 4 0 0 0 0 0 0 0 0 0 0 0 0 0 0 5 5 5 5 5 5 68 74 41 5 5 80 100
0 2 1 2 4 1 0 0 0 0 0 0 0 0 0 0 0 5 4 1 4 5 5 5 5 5 5 5 5 4 4 5 10
5 5 5 25 18 4 4 1 0 0 0 0 0 0 0 5 5 5 5 21 49 5 27 20 20 25 58 69 72 19 6 6 5
42 5 5 9 37 21 50 17 21 5 5 0 0 1 5 5 5 5 54 69 87 92 76 71 100 100 100 100 100 100 100 100 99
8 36 61 100 99 56 85 100 14 6 7 20 54 7 3 5 5 5 5 6 100 100 93 100 96 100 100 100 100 100 100 100 100
82 95 100 100 100 100 100 100 100 74 5 5 26 5 5 5 5 5 5 65 74 100 100 100 100 100 100 100 100 100 100 100 100
27 98 100 100 100 100 100 100 100 94 46 48 100 64 31 39 86 32 5 5 5 70 73 58 95 100 63 61 20 60 100 100 100
37 88 100 100 100 100 100 100 100 100 100 44 100 100 91 37 97 74 5 2 0 2 5 6 42 38 57 93 92 100 100 97 62

GFSFLT1_prec_cloud_048.txt.gz
Cloud_Cover
0 0 18 93 11 0 0 0 0 0 0 0 0 0 0 0 0 0 0 0 1 9 5 5 75 6 5 5 5 30 5 3 5
0 2 7 16 0 0 0 0 0 0 0 0 0 0 0 0 0 0 0 4 46 8 26 17 98 71 42 47 48 33 18 5 2
0 2 0 2 7 0 0 0 0 4 10 0 0 0 0 0 0 0 0 2 1 58 15 63 100 27 97 91 99 94 83 88 88
0 0 4 0 0 4 7 6 14 14 0 0 0 0 0 4 5 24 5 7 17 16 34 65 31 86 79 87 83 79 100 100 100
0 0 0 9 68 0 8 9 2 0 0 0 0 0 0 1 5 5 5 10 9 100 49 91 43 80 64 100 98 96 99 97 100
0 1 4 0 0 0 20 17 0 0 0 0 0 0 0 0 1 5 8 12 18 28 4 13 5 8 10 5 5 5 5 6 19
0 0 0 0 0 0 0 0 0 0 0 0 0 0 0 0 0 0 0 5 14 3 0 7 6 3 0 2 0 2 5 5 6
7 4 5 5 2 1 0 0 0 0 0 0 0 0 0 0 0 0 0 6 9 0 0 0 0 0 0 0 0 1 0 0 0
32 23 13 23 19 6 1 4 0 0 0 0 0 0 0 0 0 0 0 0 10 0 0 0 0 0 0 0 0 0 0 0 0
38 26 28 30 14 5 5 5 5 0 0 0 0 0 0 0 0 0 0 0 0 0 0 0 0 0 0 2 5 5 3 1 0
45 33 31 32 16 5 5 5 5 3 0 0 0 0 0 0 0 0 0 0 0 0 0 0 0 0 1 5 5 5 5 5 5
36 29 34 23 18 5 5 3 5 0 0 0 0 0 0 0 0 0 0 0 0 0 0 0 3 4 2 4 3 5 5 5 5
25 32 22 21 18 5 5 5 0 0 0 0 0 0 0 0 0 0 0 0 0 0 0 2 2 0 2 5 5 5 5 5 2
5 18 9 7 28 6 4 5 5 8 5 3 5 0 3 0 0 0 0 0 0 4 5 5 5 5 5 5 30 100 97 90 86
5 7 5 5 7 4 3 4 23 66 34 15 6 3 0 0 0 3 0 1 5 5 5 5 5 5 52 56 86 100 100 100 100
3 0 5 5 5 5 8 23 57 60 92 100 22 5 0 0 0 2 5 5 5 5 5 5 5 5 25 64 41 36 77 100 100
5 35 5 26 21 84 100 100 100 100 88 95 54 22 5 3 5 5 5 5 5 5 4 0 1 4 20 72 94 98 93 96 85
8 5 5 100 100 100 100 100 100 100 75 62 61 16 5 5 5 5 5 5 5 5 1 0 0 0 0 1 2 3 5 7 11
5 5 83 100 100 100 100 100 100 100 100 100 83 71 77 100 97 14 92 35 23 7 5 1 4 0 0 0 0 0 0 0 5
74 93 100 41 78 83 96 100 100 100 100 100 100 100 100 100 100 100 100 100 96 16 5 5 5 0 0 0 1 5 1 5 3

GFSFLT1_prec_cloud_051.txt.gz
Cloud_Cover
2 0 0 10 92 1 2 0 0 0 0 0 0 0 0 0 0 0 0 3 19 18 2 95 0 0 1 5 0 1 1 8 6
3 7 6 27 4 0 0 0 0 0 0 0 0 0 0 0 0 0 6 50 17 42 76 89 99 80 73 92 86 70 71 37 32
0 1 0 0 0 0 0 0 0 1 0 0 0 0 0 0 0 0 0 0 55 92 43 60 97 52 43 25 100 100 98 97 100
0 7 0 2 0 1 4 2 8 2 0 0 0 0 0 0 0 0 0 0 4 59 100 71 28 14 15 20 29 14 3 86 92
0 0 2 58 11 0 0 0 6 0 0 0 0 0 0 0 0 0 0 0 0 67 62 22 17 0 3 13 10 12 5 4 8
0 0 4 93 14 0 0 0 0 0 0 0 0 0 0 0 0 0 0 2 12 18 31 26 13 0 0 0 0 0 0 0 0
0 0 0 23 18 45 1 4 0 0 0 0 0 0 0 0 0 0 0 4 19 0 16 22 2 0 0 0 0 0 0 0 0
0 0 8 2 40 7 13 0 0 0 0 0 0 0 0 0 0 0 0 17 2 0 0 0 0 0 0 0 0 0 0 0 0
2 0 5 14 30 10 5 5 4 4 0 0 0 0 0 0 0 0 0 0 4 0 0 0 0 0 0 0 0 0 0 0 0
34 23 0 2 39 3 5 5 5 5 4 3 0 0 0 0 0 0 0 0 0 0 0 0 0 0 0 0 0 0 0 2 4
11 46 39 3 7 0 5 5 5 3 2 0 0 0 0 0 0 0 0 0 0 0 0 0 0 0 0 0 0 0 0 0 2
5 0 36 22 0 0 5 5 4 3 2 4 4 2 0 4 0 0 0 0 0 0 0 0 0 0 0 0 2 5 3 3 2
5 6 24 24 5 5 5 5 6 8 5 5 4 0 0 0 5 0 0 0 0 0 5 5 5 1 0 2 5 5 5 5 5
11 42 22 22 27 4 4 5 17 1 3 4 1 2 5 4 4 0 3 1 0 0 0 0 4 5 5 4 5 5 5 5 5
62 76 8 16 33 10 5 5 5 5 5 4 5 5 5 5 4 0 0 3 0 0 0 5 5 3 0 0 5 0 0 1 5
86 64 20 13 26 5 5 5 10 5 5 5 5 9 24 5 5 5 2 0 5 5 5 4 5 4 4 0 0 0 0 0 0
31 10 54 9 5 8 20 82 12 18 96 100 100 100 100 100 5 5 5 5 5 14 6 5 6 5 5 5 0 0 0 0 0
99 69 94 100 66 51 6 45 100 51 65 100 100 100 100 84 24 81 95 100 100 85 80 37 80 18 5 5 5 2 2 0 0
100 71 98 100 100 100 94 96 59 78 90 100 100 100 100 100 100 100 100 100 98 96 100 98 83 6 5 5 5 5 5 5 3
100 100 100 100 97 89 98 100 100 100 100 100 100 100 100 100 100 100 100 100 100 100 100 100 100 61 30 5 68 49 38 5 5

GFSFLT1_prec_cloud_054.txt.gz
Cloud_Cover
14 1 1 9 100 100 100 0 0 0 1 0 0 0 0 0 0 31 12 99 6 17 15 19 3 0 2 3 14 0 0 18 51
0 1 0 4 5 35 5 5 4 0 0 0 0 0 0 0 33 68 99 55 24 87 28 34 57 84 72 56 49 53 65 35 17
5 5 5 5 5 1 1 0 0 0 4 0 0 0 0 2 1 29 86 3 28 93 82 7 72 36 20 12 65 81 87 91 74
5 5 5 5 1 0 5 7 11 0 0 0 0 0 0 12 4 2 70 64 11 100 100 100 38 8 9 28 57 14 19 46 39
1 5 3 0 5 1 2 0 0 0 0 0 0 0 0 9 0 0 47 0 11 80 100 92 16 2 9 7 8 0 0 0 0
3 2 0 12 16 1 33 2 0 0 0 0 0 0 0 0 0 0 0 0 0 10 21 20 4 0 0 0 0 0 0 0 0
0 0 33 100 54 36 11 0 0 0 0 1 0 0 0 0 0 0 0 3 0 4 16 0 0 0 0 0 0 0 0 0 0
0 0 0 22 77 30 14 2 0 0 0 0 0 0 0 0 0 0 0 13 0 0 0 0 0 0 0 0 0 0 0 0 0
5 2 0 0 8 59 30 6 3 0 2 0 0 0 0 0 0 0 0 0 0 0 0 0 0 0 0 0 0 0 0 0 0
5 5 4 0 0 3 5 0 5 0 5 3 0 0 0 0 0 0 25 1 0 0 0 0 0 0 0 0 0 0 0 0 0
5 5 4 2 0 0 0 0 3 5 5 4 2 4 0 0 0 0 5 51 0 0 0 0 2 0 0 0 3 4 0 0 0
5 5 16 32 26 5 5 5 5 5 26 5 0 5 4 0 0 0 0 1 0 0 0 1 5 0 0 0 0 0 0 0 0
5 6 5 19 68 39 5 5 5 5 3 3 3 5 2 5 5 0 0 0 0 0 0 0 1 4 0 0 0 0 0 0 0
5 5 16 6 59 84 18 5 15 5 5 5 5 4 5 5 4 2 0 0 0 0 0 0 4 5 3 3 4 3 0 0 0
57 75 51 29 20 100 68 97 65 32 5 19 10 5 5 5 5 40 58 61 52 58 16 4 4 2 5 5 5 5 5 4 0
100 100 77 7 83 80 100 100 86 12 52 63 58 27 9 31 100 84 100 100 96 53 52 5 4 5 5 1 5 4 5 4 0
56 44 78 83 29 26 98 52 80 91 100 78 29 43 86 89 100 100 100 100 45 68 5 5 11 43 5 10 5 5 5 5 5
91 81 64 100 99 95 53 99 100 100 100 100 85 98 99 100 100 100 100 100 100 100 100 96 100 79 78 20 5 5 79 68 8
100 100 94 100 100 99 100 100 100 100 100 100 100 98 100 100 100 100 100 100 100 100 100 100 100 100 91 21 68 85 40 100 66
100 100 100 100 100 100 100 100 100 100 100 100 100 100 100 100 100 100 100 100 100 100 100 100 100 100 100 98 100 100 89 5 8

GFSFLT1_prec_cloud_057.txt.gz
Cloud_Cover
1 4 25 5 4 100 100 0 0 0 0 0 0 0 0 0 38 100 44 37 7 21 2 44 0 4 15 4 7 0 0 0 0
13 4 7 3 71 84 18 5 2 0 0 0 0 0 0 32 100 100 49 31 71 60 78 100 77 83 84 86 53 95 22 2 1
0 1 1 0 0 0 0 0 5 0 1 0 0 0 0 47 11 86 83 14 9 45 72 35 83 44 29 67 62 100 100 100 98
0 0 0 0 0 0 0 2 5 0 0 0 0 0 0 62 16 67 46 0 4 9 88 25 6 3 6 1 18 15 75 99 100
0 0 0 4 0 4 0 4 0 0 0 0 0 0 0 31 4 37 0 0 6 0 0 14 9 0 0 1 2 0 0 0 0
2 0 0 0 0 0 0 0 0 0 0 0 0 0 14 17 13 23 0 0 11 18 15 21 0 0 0 0 0 0 0 0 0
0 0 0 0 0 0 0 1 0 0 0 2 0 0 0 0 0 0 2 0 5 18 3 0 0 0 0 0 0 0 0 0 0
0 0 0 0 0 2 5 2 0 0 0 0 0 0 0 0 0 0 0 0 0 1 0 0 0 0 0 0 0 0 0 0 0
3 0 0 8 7 35 3 15 0 0 0 0 0 0 0 0 0 0 0 0 1 0 0 0 0 0 0 0 0 0 0 0 0
5 1 2 4 25 7 16 16 18 0 0 0 0 0 0 0 0 0 0 0 4 0 2 0 0 0 0 0 0 0 0 0 0
5 5 5 5 5 10 24 12 3 3 3 2 5 0 0 0 0 0 3 80 1 0 2 0 0 0 0 0 0 0 1 0 0
53 37 5 13 7 15 29 26 5 5 5 5 5 4 5 4 2 5 5 19 36 5 0 0 0 0 0 0 0 1 5 5 5
5 5 5 5 5 25 37 35 6 5 11 9 5 8 7 5 5 5 5 5 5 0 0 2 2 4 5 13 5 5 5 2 5
10 46 66 5 5 57 45 39 20 10 69 53 14 46 96 26 12 5 5 5 5 10 32 62 58 69 91 45 5 5 2 5 5
6 5 5 6 5 14 90 53 92 29 48 8 16 99 80 86 98 60 5 9 21 100 100 98 29 27 7 17 5 2 4 0 0
30 5 5 8 29 14 32 56 23 66 76 96 18 72 100 100 100 100 100 100 100 100 100 99 52 78 76 29 18 5 3 5 5
22 18 66 34 100 47 64 41 39 95 46 46 53 91 40 100 98 100 100 100 100 100 100 100 100 100 100 95 69 97 88 5 5
87 52 61 31 17 92 90 100 100 79 75 100 82 100 100 100 100 100 100 100 100 100 100 100 100 100 100 100 100 100 100 86 16
93 98 100 100 100 100 100 100 100 100 100 100 100 94 100 100 100 100 100 100 100 100 100 100 100 100 100 100 100 100 100 100 99
99 100 100 100 100 100 100 100 100 100 100 100 100 100 100 100 100 100 100 100 100 100 100 100 100 100 100 100 100 100 100 97 100

GFSFLT1_prec_cloud_060.txt.gz
Cloud_Cover
14 15 22 0 12 100 41 0 0 0 0 0 0 0 0 100 96 79 2 0 58 30 40 3 87 98 90 63 74 0 13 10 0
12 12 0 0 0 77 0 0 0 0 0 0 0 0 11 99 100 86 25 44 73 84 68 98 74 100 100 81 91 98 36 60 2
15 13 0 0 0 0 0 0 0 0 0 0 0 0 0 8 90 30 16 0 0 1 90 78 88 73 19 44 100 100 100 100 86
18 0 0 0 0 0 0 0 0 0 0 0 0 0 0 80 0 72 0 0 25 1 13 4 3 2 1 1 5 32 100 100 100
0 5 5 5 0 0 0 2 0 3 0 0 0 0 0 0 0 2 0 0 13 12 3 3 1 0 0 0 0 0 0 4 14
0 0 0 3 4 2 0 0 0 0 0 0 0 0 0 9 10 0 0 0 6 20 2 0 0 0 0 0 0 0 0 0 0
5 4 2 0 0 0 0 0 0 0 0 0 0 0 0 0 0 0 0 0 7 11 5 0 0 0 0 0 0 0 0 0 0
0 2 0 2 0 0 0 0 0 0 0 0 0 0 0 0 0 0 0 0 6 3 0 0 0 4 3 0 0 0 0 0 0
2 5 5 1 0 0 0 0 0 0 0 0 0 0 0 0 0 0 0 0 0 0 0 0 2 4 0 0 0 0 0 0 0
2 5 5 5 5 1 0 0 1 0 0 0 0 2 0 5 5 5 0 0 0 0 0 0 2 0 0 0 0 0 0 0 0
9 7 5 5 5 5 1 5 15 0 0 1 5 1 4 5 5 5 4 0 4 0 0 5 5 2 0 0 0 0 3 4 0
4 5 5 5 5 5 5 14 2 5 4 5 0 5 9 5 5 84 35 5 42 9 5 4 5 5 0 0 4 5 48 91 12
9 9 2 3 5 5 5 1 1 5 4 5 5 5 14 5 5 60 83 70 51 21 25 5 5 5 5 5 17 96 8 5 2
92 31 5 2 2 5 5 3 1 5 5 5 5 98 65 32 64 100 88 100 34 61 100 98 90 81 16 64 23 34 5 5 2
31 6 5 4 5 0 1 4 5 5 5 35 43 59 7 93 100 98 97 80 89 100 100 100 100 100 100 100 97 24 32 75 79
5 5 5 0 0 0 0 5 5 53 51 5 7 8 97 100 100 100 100 100 100 100 100 100 100 100 100 100 100 100 100 100 100
11 8 2 0 0 2 11 5 40 99 100 53 98 64 79 100 100 100 100 100 100 100 100 100 100 100 100 100 100 100 100 100 100
15 74 99 37 10 18 21 47 56 96 95 100 96 100 96 100 100 100 100 100 100 100 100 100 100 100 100 100 100 100 100 100 100
0 1 3 87 100 100 99 85 80 100 100 100 100 99 70 100 100 100 100 100 100 100 98 100 100 100 100 100 100 100 100 100 100
64 32 8 36 100 100 100 100 100 100 100 100 100 100 100 100 100 100 100 100 100 100 100 100 100 100 100 100 100 100 100 100 100

GFSFLT1_prec_cloud_063.txt.gz
Cloud_Cover
20 5 6 0 4 2 0 0 0 0 0 0 0 0 54 0 33 0 10 16 7 23 44 86 99 95 12 97 0 13 2 0 0
88 22 0 0 0 0 0 0 0 0 0 0 0 0 0 4 0 39 28 64 94 80 66 62 100 100 100 4 69 30 54 15 38
9 23 0 0 0 0 0 0 0 0 0 0 0 0 0 0 0 0 0 0 14 2 59 88 100 83 20 48 100 100 100 84 91
7 9 1 0 0 0 0 0 0 0 0 0 0 0 0 0 0 0 0 0 20 3 0 11 11 3 0 2 75 100 100 100 100
0 0 0 0 0 0 0 0 0 0 0 0 0 0 0 0 0 0 0 0 8 0 0 0 0 0 0 0 0 0 8 24 35
0 0 0 0 0 0 0 0 0 0 0 0 0 0 0 0 0 0 0 0 4 6 0 0 0 0 0 0 0 0 0 0 0
0 0 0 0 0 0 0 0 0 0 0 3 5 5 2 0 0 0 0 0 0 0 0 0 0 0 0 0 0 0 0 0 0
0 3 0 1 0 4 2 0 3 4 5 5 0 2 4 0 0 0 0 0 0 1 0 0 0 0 0 0 3 0 0 0 0
5 5 5 3 4 9 3 0 0 5 4 1 5 5 5 4 2 0 0 0 5 5 0 4 5 5 5 5 0 0 0 0 0
4 4 5 5 4 5 13 5 5 0 0 0 1 1 3 0 0 1 0 3 5 5 30 5 5 5 5 5 5 5 5 0 0
5 0 0 0 5 5 5 5 5 5 3 0 2 0 4 0 0 2 4 1 8 15 5 14 63 100 73 5 5 5 5 5 2
0 0 0 1 32 84 5 5 5 5 5 5 2 5 0 0 5 5 38 5 5 5 7 6 89 100 100 52 5 5 5 5 5
10 5 5 41 84 89 44 5 5 5 5 5 4 5 5 5 5 53 34 39 61 11 9 31 40 99 100 100 46 6 5 5 5
5 30 11 5 16 49 33 30 5 5 4 2 5 3 5 5 5 5 75 62 100 94 78 93 100 100 100 100 100 96 58 74 5
18 14 88 48 66 100 95 7 5 1 3 0 2 5 5 6 28 18 98 100 100 100 100 77 81 100 100 100 100 100 60 89 21
100 100 100 100 95 5 12 5 5 5 2 8 66 12 78 94 100 98 50 100 100 100 100 100 100 100 100 100 99 84 84 86 53
100 100 100 100 57 5 5 4 3 3 24 46 46 90 7 88 93 91 100 97 100 100 100 100 100 100 100 100 100 98 96 100 100
56 100 60 28 12 5 14 4 21 5 12 89 39 50 13 100 100 100 100 100 100 100 100 100 100 100 100 100 100 100 100 100 100
20 5 10 7 7 5 0 74 100 91 62 83 100 100 100 100 100 100 100 100 100 100 100 100 100 100 100 100 100 100 100 100 100
5 5 5 2 21 5 5 44 45 100 100 93 100 100 100 100 100 100 100 100 100 100 100 100 100 100 100 100 100 100 100 100 100

GFSFLT1_prec_cloud_066.txt.gz
Cloud_Cover
100 100 100 74 30 5 0 0 0 0 0 0 0 0 0 0 0 0 0 0 34 79 94 99 50 16 0 0 17 5 0 0 14
100 34 88 4 5 4 0 0 0 0 0 0 0 0 0 0 0 0 36 24 98 70 29 89 99 98 20 25 90 45 11 18 4
100 34 5 3 5 0 0 0 0 0 0 0 0 0 0 0 0 0 0 0 12 2 13 66 78 100 15 69 98 80 86 64 50
18 47 1 5 5 0 0 0 0 0 0 0 0 0 0 0 0 0 2 0 5 0 2 16 26 12 0 15 98 100 100 100 100
5 0 0 0 0 0 0 0 0 0 0 0 0 0 0 0 0 0 0 0 9 5 5 5 2 4 0 0 2 29 90 100 100
0 0 0 0 0 0 0 0 0 0 0 0 0 0 0 0 0 0 0 1 9 5 4 0 0 0 0 2 5 5 5 71 7
0 0 0 0 0 0 2 0 0 0 0 0 0 0 0 0 5 3 4 4 3 0 0 0 0 0 5 2 2 5 13 64 44
3 5 5 2 5 13 2 5 5 4 0 0 0 0 0 5 4 3 5 5 1 0 0 0 0 0 0 2 5 5 5 5 15
0 23 9 10 14 17 20 11 5 5 5 2 0 0 5 2 0 4 3 0 0 0 0 0 1 0 0 5 66 100 100 90 17
0 0 1 5 10 22 35 14 3 10 8 15 5 2 4 5 6 4 0 0 0 0 1 5 5 1 1 5 48 66 100 100 100
0 0 0 0 4 7 11 12 5 5 5 6 5 5 8 5 4 7 2 0 0 3 5 5 5 5 7 5 23 15 100 100 98
0 4 5 24 11 5 5 5 5 5 5 5 93 55 20 5 5 5 2 0 0 5 5 5 5 11 12 12 63 100 99 100 100
5 5 6 6 23 5 5 5 11 30 17 8 5 5 5 5 5 5 5 5 14 56 100 69 38 19 84 91 98 100 44 100 100
6 26 49 100 54 19 56 72 78 100 36 5 5 5 5 5 5 5 18 47 60 94 100 100 91 59 36 10 57 86 88 94 100
98 100 100 78 100 100 100 100 100 88 28 5 6 10 5 5 5 12 69 85 99 100 100 100 100 100 94 92 66 91 100 97 100
100 99 62 100 100 100 100 100 100 100 14 98 100 84 9 5 5 5 5 100 100 100 100 100 100 100 100 100 100 100 100 100 100
100 94 100 100 100 100 98 75 57 16 12 61 78 100 87 9 16 41 35 100 100 100 100 100 100 100 100 100 100 100 100 100 100
100 100 100 100 99 21 39 42 67 8 27 6 76 100 84 100 100 100 100 100 100 100 100 100 100 100 100 100 100 100 100 100 100
100 97 94 67 73 57 40 6 6 9 9 24 52 68 64 96 85 99 72 100 100 100 100 100 100 100 100 100 100 100 100 100 100
100 75 5 22 28 14 32 6 23 7 41 45 13 21 96 100 100 100 76 31 81 100 100 100 100 100 100 100 100 100 100 100 100

GFSFLT1_prec_cloud_069.txt.gz
Cloud_Cover
14 56 98 100 99 35 46 6 5 1 5 0 0 0 0 0 0 3 0 31 99 20 67 8 12 7 8 7 20 8 0 10 6
100 97 100 100 77 59 5 5 1 0 4 0 0 0 0 0 0 1 1 40 16 71 37 99 98 38 29 28 9 3 7 12 30
100 100 99 88 85 89 47 13 1 0 0 0 0 0 0 0 0 0 0 2 5 5 5 5 46 100 20 1 24 86 50 42 100
73 76 30 5 5 5 0 0 0 0 0 0 0 0 0 0 0 0 5 5 5 5 5 5 49 19 0 5 99 100 100 100 100
5 5 5 5 5 5 0 0 0 0 0 0 0 0 0 0 0 0 5 5 5 5 0 5 10 3 7 14 12 100 100 100 100
6 4 5 5 5 5 0 0 0 0 0 0 0 0 0 0 0 5 5 5 5 5 5 4 5 0 1 1 14 12 14 32 58
100 52 53 43 5 2 0 1 1 2 1 3 0 0 0 0 0 5 4 2 12 6 3 0 1 4 5 5 3 4 7 0 11
23 30 6 33 5 8 2 4 0 0 0 5 5 4 0 2 0 0 5 5 5 24 4 0 5 5 5 5 5 4 1 6 89
19 28 10 12 12 17 24 27 0 1 5 5 5 5 5 5 8 5 5 5 5 5 1 5 5 5 5 5 53 6 10 8 100
5 14 18 18 10 24 34 35 12 1 1 5 6 5 5 5 10 6 5 5 5 5 5 5 5 5 5 5 99 100 99 45 81
5 5 8 9 13 21 24 32 24 8 23 28 5 5 11 5 5 6 5 5 5 5 5 5 5 11 100 99 100 100 85 91 100
5 5 5 5 5 5 21 22 22 89 85 15 5 20 6 5 5 5 6 5 5 5 5 5 15 100 100 100 100 89 98 31 100
5 5 5 5 5 35 32 100 86 74 72 46 5 5 5 5 7 5 5 5 5 5 5 5 100 100 100 100 100 100 100 100 94
5 5 5 16 77 88 78 16 54 68 5 6 8 6 11 5 6 13 5 5 5 5 6 92 100 100 100 100 100 100 100 94 100
10 75 36 8 46 83 35 68 94 100 76 22 9 5 12 54 29 5 36 5 5 29 83 100 100 100 100 100 100 100 100 100 100
92 21 30 54 100 100 100 100 100 100 66 50 7 5 83 100 99 66 8 5 44 70 96 100 100 100 100 100 100 100 100 100 100
100 91 99 100 100 100 100 100 100 71 35 83 94 77 100 92 15 5 1 5 47 87 62 94 99 100 100 100 100 100 100 100 100
100 100 100 100 100 100 100 100 79 40 98 100 100 100 100 62 12 5 5 41 9 5 4 92 94 100 96 100 100 100 100 100 100
100 100 100 100 100 100 82 60 47 6 7 52 67 99 100 100 94 43 23 60 75 8 26 27 40 89 100 100 100 100 100 100 100
9 10 54 39 98 26 23 74 58 10 20 46 100 100 100 100 100 100 91 96 43 80 35 100 65 59 100 100 100 100 100 100 100

GFSFLT1_prec_cloud_072.txt.gz
Cloud_Cover
85 22 3 40 95 100 100 78 16 20 10 5 5 0 0 0 0 0 2 85 15 18 5 35 6 6 5 6 3 0 1 1 0
6 47 99 100 100 100 83 45 32 62 10 0 2 0 0 0 0 0 11 20 21 25 3 81 67 6 4 1 13 4 67 18 17
100 99 100 100 100 98 35 13 5 5 5 0 0 0 0 0 0 0 0 15 7 5 5 16 39 91 17 0 3 0 16 13 30
100 100 100 100 100 99 98 10 5 5 5 5 0 0 0 0 0 0 4 5 5 5 89 32 5 2 0 0 0 33 11 34 91
100 100 100 100 100 50 41 6 5 5 5 5 0 0 0 0 0 0 0 5 5 23 5 4 0 0 0 0 2 17 89 100 100
100 100 87 35 87 14 5 5 5 5 5 4 5 2 2 0 0 0 5 5 5 5 5 3 5 0 5 5 5 5 20 43 51
100 100 100 100 5 5 5 5 19 5 5 5 5 5 5 3 3 5 5 5 28 5 5 5 5 5 5 5 5 5 8 6 13
100 100 100 100 92 94 72 44 5 5 0 4 3 5 5 5 5 5 5 5 17 23 5 4 5 5 5 5 5 5 5 36 100
90 34 54 74 89 79 27 30 8 0 0 0 1 2 5 40 10 7 86 60 5 9 5 5 5 5 5 5 10 18 76 100 100
26 19 17 15 15 22 23 35 31 6 0 0 1 5 45 30 6 18 6 5 5 5 8 5 5 5 5 7 6 38 100 100 100
5 5 11 12 17 9 20 24 32 25 5 4 19 100 95 33 13 31 5 5 5 5 5 5 5 9 13 11 10 29 38 100 100
5 5 5 5 5 5 11 21 29 42 11 13 73 66 99 96 47 5 6 5 5 5 5 5 5 5 12 2 14 33 13 39 99
9 5 5 5 5 5 6 10 22 32 31 28 100 100 100 80 5 5 18 5 15 5 5 5 5 5 5 5 5 92 97 100 100
5 5 5 5 5 6 5 10 23 8 35 100 100 67 30 5 27 5 5 16 7 5 6 5 5 70 100 100 100 100 100 100 100
20 5 18 14 16 47 68 59 19 40 98 100 82 16 5 9 48 47 81 20 5 5 5 7 40 14 46 95 8 17 100 99 100
57 68 31 90 93 100 32 88 86 93 100 93 99 100 93 70 17 77 31 5 5 5 2 5 22 83 63 7 5 11 100 100 100
100 87 95 98 35 68 99 82 100 99 56 97 100 100 67 24 90 17 5 5 5 5 10 5 60 15 44 100 100 100 100 100 100
100 100 93 99 98 100 100 100 100 93 90 68 100 94 100 100 99 100 100 46 6 37 10 35 38 61 100 100 97 92 100 98 100
100 100 100 100 100 100 98 79 68 99 100 71 50 48 98 100 100 100 100 68 68 70 19 68 15 4 85 91 100 100 100 100 100
100 100 100 100 100 100 100 100 100 100 98 52 32 100 70 100 100 71 91 81 51 9 9 0 0 0 0 14 69 99 100 100 100

GFSFLT1_prec_cloud_075.txt.gz
Cloud_Cover
100 100 100 31 5 6 36 93 100 88 17 8 5 3 5 5 5 1 60 44 38 7 5 6 9 29 6 10 4 0 4 0 5
96 100 100 16 86 99 99 81 45 76 46 12 5 3 5 5 5 58 21 62 3 20 5 5 52 13 8 11 5 18 14 38 9
49 46 33 93 100 100 97 99 72 62 86 57 5 5 5 4 5 0 0 4 3 5 5 43 5 85 18 12 0 0 1 1 21
100 100 100 100 100 100 69 75 70 61 5 5 8 4 5 5 4 0 0 0 5 5 11 29 5 5 5 5 0 1 5 5 30
100 100 100 100 100 86 86 49 16 44 9 5 5 5 5 0 0 0 0 3 5 5 58 5 5 5 5 0 4 0 5 5 62
100 100 100 100 32 90 75 18 8 5 4 5 41 5 5 5 3 0 1 5 5 10 5 5 5 5 5 5 5 5 5 3 72
100 100 73 78 79 20 12 26 5 5 5 5 5 4 5 5 5 5 5 5 12 5 5 5 5 6 0 5 3 5 4 6 5
100 98 81 75 82 74 70 58 49 55 30 16 5 0 0 0 2 5 5 5 7 22 5 5 5 15 4 5 2 5 5 0 3
0 17 21 42 48 76 93 91 63 72 6 5 0 0 0 0 5 5 5 5 5 5 21 5 5 5 5 0 5 5 1 0 0
5 2 0 4 5 21 28 8 5 5 5 3 0 4 5 5 5 11 36 24 5 5 5 21 7 5 1 8 5 4 3 0 5
5 5 5 5 5 5 5 5 5 5 5 5 5 5 5 5 11 99 27 9 9 16 5 5 11 10 10 20 25 20 8 27 55
5 5 5 5 5 5 5 5 5 5 5 5 7 5 5 97 73 5 5 14 19 5 7 5 5 1 1 10 54 99 60 98 70
42 54 11 66 21 17 8 5 5 5 5 8 32 12 98 21 44 19 10 5 5 5 5 5 0 1 3 5 48 98 100 56 5
47 60 15 61 82 49 6 5 49 52 88 75 72 98 93 100 50 5 5 5 5 5 5 5 17 31 56 27 7 11 72 95 50
5 5 5 5 27 37 57 86 84 100 57 5 7 89 93 37 7 6 62 5 5 5 5 15 53 99 100 100 98 39 14 7 14
30 39 20 59 62 99 100 100 94 36 5 25 79 92 7 32 79 30 5 5 5 5 5 5 11 31 83 92 86 100 100 100 97
100 98 97 100 100 100 97 60 16 6 19 48 70 87 82 99 25 100 79 73 38 22 5 5 6 31 77 100 100 98 100 100 98
100 100 100 100 100 100 57 56 97 100 100 97 100 100 48 98 100 100 96 100 86 39 5 5 4 5 67 100 30 17 100 100 100
100 100 100 100 100 100 100 100 100 100 100 98 100 100 100 100 100 100 100 100 97 26 5 5 5 5 1 0 0 58 97 90 98
100 100 100 100 100 100 100 100 100 100 100 100 100 100 100 98 100 100 100 100 64 62 5 5 9 5 0 0 0 0 80 100 77

GFSFLT1_prec_cloud_078.txt.gz
Cloud_Cover
92 100 100 100 100 37 51 21 84 100 47 36 39 55 16 76 39 29 74 97 5 5 5 19 21 23 20 40 5 22 7 14 14
100 100 100 100 100 96 84 100 100 78 75 63 58 90 60 48 59 69 94 71 4 5 5 5 17 6 54 5 7 11 16 5 15
50 68 100 100 18 19 99 100 100 61 47 62 68 63 42 14 24 19 11 2 3 5 0 5 5 5 5 24 6 4 5 7 10
82 5 14 67 100 100 100 100 98 50 28 95 63 36 17 5 5 5 4 2 0 0 5 5 5 5 5 5 4 5 5 28 56
98 100 100 100 100 100 100 96 99 11 94 64 41 32 5 5 5 2 2 0 0 5 3 5 5 5 5 5 5 3 5 3 0
100 100 100 100 100 100 81 94 61 76 8 7 59 22 5 5 1 0 0 0 0 0 5 5 5 5 5 5 5 5 15 0 3
100 100 100 95 57 92 82 100 67 14 9 5 5 5 5 5 5 2 0 0 6 7 5 5 5 5 5 36 5 5 5 0 5
100 100 100 100 100 70 52 47 10 5 5 6 5 5 18 4 1 0 2 5 0 13 74 5 5 5 5 4 5 5 4 0 0
35 2 3 2 0 2 4 5 5 0 0 0 0 2 0 5 3 0 5 5 11 85 17 13 5 4 2 5 5 0 0 0 3
0 0 0 0 3 0 5 5 5 5 5 5 5 5 5 5 5 4 5 60 72 5 5 8 16 7 5 16 13 0 0 0 4
0 0 2 5 5 5 5 5 5 5 6 50 26 33 5 5 6 5 23 6 65 5 5 0 0 13 20 10 90 71 0 13 13
1 3 5 5 41 10 13 15 5 5 61 75 87 27 57 91 5 84 5 98 8 5 0 0 5 2 19 21 100 100 95 12 11
5 7 14 26 5 21 38 26 7 50 63 70 86 100 100 10 5 5 29 5 3 4 5 5 12 48 20 56 64 100 94 84 5
16 5 6 67 68 17 21 17 56 51 91 100 100 100 61 5 5 5 23 11 5 5 5 5 4 12 100 100 100 72 100 34 5
38 22 14 47 80 84 90 68 39 94 100 100 100 100 94 64 66 100 77 5 42 6 5 5 4 39 99 100 100 100 100 100 84
45 49 48 65 89 95 100 100 100 100 100 100 100 100 100 99 99 55 5 5 5 5 5 5 5 5 5 5 80 100 100 86 31
88 85 82 98 100 100 100 100 100 100 100 100 100 100 100 100 100 56 26 61 6 5 5 5 5 6 5 5 73 46 100 94 11
100 100 100 100 100 100 100 100 100 100 100 94 100 98 90 82 65 100 99 81 43 51 21 5 24 10 5 11 14 7 99 50 2
100 100 100 100 100 100 100 100 100 100 100 100 100 98 89 98 98 99 96 100 100 100 27 8 28 59 14 30 5 5 6 73 88
100 100 100 100 100 100 100 100 100 100 100 100 100 100 100 100 100 100 88 96 100 100 100 99 83 96 99 30 5 5 0 10 4

GFSFLT1_prec_cloud_081.txt.gz
Cloud_Cover
53 100 100 68 66 100 100 99 100 100 98 100 95 37 57 5 45 100 68 95 5 5 5 46 20 12 15 4 14 7 22 8 13
78 95 12 100 100 100 100 100 99 32 100 100 71 21 35 52 100 15 89 43 5 5 2 0 7 11 17 30 5 12 11 17 20
0 4 6 71 50 86 33 67 68 100 100 62 70 76 69 60 34 44 56 16 5 5 0 0 0 0 1 4 22 36 26 11 12
45 0 5 3 0 5 78 100 100 100 100 59 97 52 81 22 5 5 10 5 5 1 0 0 0 1 2 5 2 0 1 1 5
68 6 5 6 39 100 100 100 100 100 45 49 64 47 64 52 5 5 5 3 0 0 0 0 0 2 5 4 0 3 0 5 3
11 66 37 99 100 100 100 100 100 100 100 99 97 13 38 5 2 0 0 0 0 0 0 0 2 57 3 0 0 0 5 5 5
9 76 100 100 100 100 93 78 100 87 89 78 4 2 3 3 4 0 2 1 0 0 0 3 72 5 3 0 0 5 5 5 1
40 96 100 100 100 6 43 86 85 27 5 0 0 0 3 5 2 0 5 5 5 8 16 61 5 5 0 0 0 1 3 2 0
55 100 100 100 96 70 4 2 0 0 0 5 1 3 5 5 2 5 5 5 5 2 5 27 4 0 0 0 0 1 0 0 0
36 63 60 32 16 1 0 0 0 1 5 5 5 5 5 5 5 5 5 5 5 0 5 5 16 15 5 4 14 5 0 0 0
0 0 0 0 0 0 2 5 5 5 14 5 12 8 5 5 65 29 5 5 5 5 5 5 5 5 19 26 57 99 88 1 12
0 0 0 0 2 5 5 5 7 5 5 73 22 5 5 99 92 9 5 5 5 5 5 5 5 5 5 5 14 6 62 19 5
0 4 5 19 33 9 17 14 10 12 42 16 33 28 98 98 33 5 6 6 5 5 5 3 5 5 5 0 13 27 5 18 0
11 27 14 20 35 33 34 35 30 35 76 100 60 100 100 60 84 57 8 49 41 24 0 4 3 5 0 68 100 100 90 24 59
39 36 28 31 54 48 76 99 97 94 66 100 100 100 100 90 60 19 8 8 62 32 24 0 4 1 3 71 100 100 100 18 6
40 40 100 100 100 100 100 98 70 98 100 100 100 100 100 97 100 57 41 16 50 1 0 1 4 21 2 3 5 23 100 70 84
95 100 100 100 100 100 100 100 100 100 100 100 100 100 100 100 100 100 16 5 5 2 0 0 0 4 5 5 40 100 96 94 28
100 100 100 100 100 100 100 100 100 100 100 100 100 100 100 100 100 100 59 14 5 5 3 0 5 5 5 30 100 100 68 46 93
100 100 100 100 100 100 100 100 100 100 100 100 100 100 100 100 100 80 49 12 9 48 14 48 44 41 30 83 78 53 96 7 33
100 100 100 100 100 100 100 100 100 100 100 100 100 100 100 100 100 100 99 53 74 31 96 8 56 85 58 100 99 30 10 30 41

GFSFLT1_prec_cloud_084.txt.gz
Cloud_Cover
79 29 6 83 100 100 100 100 100 100 100 100 100 100 100 42 77 6 5 5 5 2 5 15 13 77 72 16 4 8 17 11 38
5 5 6 83 100 82 99 100 100 100 66 19 100 100 68 100 68 5 5 5 5 5 5 3 0 6 35 99 22 16 12 11 51
5 0 5 3 54 5 26 32 5 4 3 77 100 100 62 36 41 11 23 5 5 0 0 0 0 2 6 2 3 22 29 38 12
1 0 0 0 5 5 5 1 0 23 98 100 100 53 5 70 56 30 5 5 0 0 0 0 0 0 0 0 5 4 0 4 5
0 0 0 0 0 5 3 31 100 100 100 96 100 81 97 70 76 0 0 0 0 0 2 1 0 0 0 5 5 0 5 5 5
0 13 0 0 0 2 46 99 100 100 51 8 72 70 86 48 4 0 0 0 5 4 1 0 0 0 5 1 0 3 5 5 5
8 0 0 0 0 34 100 100 100 100 87 80 99 88 8 4 0 0 0 3 5 2 0 0 0 0 0 0 0 4 5 5 2
0 11 1 0 3 37 100 100 86 40 69 91 29 0 0 0 4 0 5 2 5 5 18 0 0 0 0 0 0 0 5 0 0
0 0 0 4 5 28 100 96 98 29 5 0 0 0 2 2 4 1 5 5 8 5 0 9 3 0 0 0 5 0 0 0 0
0 0 0 5 12 95 70 14 5 5 0 0 0 0 3 5 5 5 5 34 5 4 1 3 4 23 6 2 0 0 0 0 0
0 0 0 5 11 29 17 2 0 0 0 0 2 5 5 5 5 20 99 5 5 5 4 0 0 5 11 39 0 0 0 0 0
5 1 0 0 0 0 0 0 0 0 5 5 5 5 5 5 14 100 66 5 5 6 5 5 5 4 5 0 32 25 0 0 0
5 5 5 5 5 3 1 0 0 5 5 5 6 25 14 62 100 100 46 41 100 79 6 5 5 5 4 0 17 0 20 6 5
13 6 23 5 8 5 5 5 5 16 43 100 100 82 97 100 100 97 25 88 100 100 100 20 5 0 8 83 46 2 56 26 44
46 13 24 36 90 89 68 100 100 98 100 70 85 100 100 100 83 95 27 77 99 100 100 9 3 0 9 22 98 99 49 6 11
100 70 92 100 100 100 100 100 100 88 41 87 100 100 100 78 100 100 98 100 78 89 5 5 34 26 5 5 0 0 5 100 99
100 100 100 100 100 100 100 100 100 100 100 100 100 100 100 86 100 100 100 100 99 20 94 100 32 7 3 5 0 4 3 6 98
100 100 100 100 100 100 100 100 100 100 100 100 100 73 99 100 100 100 100 100 100 99 100 62 30 4 5 0 0 5 5 65 68
100 100 100 100 100 100 100 100 100 100 100 98 100 99 100 100 100 100 100 100 100 98 100 100 100 70 5 1 5 5 67 46 52
100 100 100 100 100 100 100 100 100 100 95 100 100 100 100 100 100 100 100 100 100 100 98 68 100 57 5 5 12 98 100 100 100

GFSFLT1_prec_cloud_087.txt.gz
Cloud_Cover
91 76 54 12 51 20 98 97 100 100 81 100 100 100 17 40 100 66 18 5 5 10 0 4 100 100 92 8 2 10 12 99 100
5 49 5 5 65 5 99 90 94 100 72 56 19 10 7 100 100 61 9 11 14 5 0 0 0 89 96 100 100 100 20 63 71
5 5 5 5 5 4 36 30 3 8 5 5 1 76 86 80 41 64 30 8 9 1 0 0 0 11 14 18 11 15 27 73 11
2 1 1 2 1 1 5 5 5 50 5 0 53 100 100 55 100 77 62 75 1 0 0 0 0 0 0 0 0 0 0 0 0
0 0 0 0 0 0 0 1 0 5 6 83 100 76 69 44 66 56 61 2 0 0 0 0 0 0 0 0 2 0 0 3 5
0 0 0 0 0 0 0 0 0 0 13 99 11 24 5 10 96 9 0 0 0 0 0 0 0 0 0 0 0 0 4 5 4
0 0 0 0 0 0 0 0 0 5 77 95 72 8 10 45 6 0 0 0 5 5 1 0 0 0 0 0 0 0 4 5 0
6 17 1 2 0 0 0 0 0 10 100 100 34 38 39 5 0 0 0 5 5 3 0 0 0 0 0 0 0 0 3 0 0
15 24 12 9 2 4 0 2 5 9 92 76 61 76 5 0 0 0 5 5 5 5 4 2 18 1 1 0 0 0 0 0 0
0 0 3 3 0 1 0 0 2 10 38 7 5 0 0 0 0 3 5 5 5 5 5 5 4 9 16 3 0 0 0 0 0
0 0 0 0 0 0 0 0 2 5 1 0 0 0 0 1 5 5 5 5 5 5 5 5 18 5 5 42 90 8 0 0 0
5 5 5 5 4 1 0 4 4 5 5 5 5 5 5 5 5 12 31 86 99 71 9 5 20 100 6 4 35 47 73 0 0
34 21 5 5 5 5 5 12 12 26 5 5 6 30 68 48 47 76 100 100 100 83 100 97 48 61 6 7 73 20 5 42 55
100 100 51 5 5 6 81 78 48 21 32 99 100 82 70 56 93 100 100 63 100 8 100 100 100 100 100 100 100 23 10 8 69
100 100 100 100 97 100 99 100 100 100 100 100 100 68 99 100 100 100 60 5 32 36 100 100 100 100 100 100 94 72 5 7 30
100 100 100 100 100 100 100 100 100 100 100 100 100 100 100 100 100 83 74 100 60 78 100 100 100 100 100 100 100 100 22 13 5
100 100 100 100 100 100 100 100 100 100 100 100 100 100 100 80 34 24 83 93 100 100 100 100 100 100 100 100 100 6 5 5 5
100 100 99 98 100 100 100 100 100 100 100 100 100 96 100 100 100 99 100 100 100 100 100 100 100 100 100 99 90 5 5 7 7
100 100 100 100 100 100 100 98 100 98 100 100 85 47 100 100 100 100 100 100 100 100 100 100 100 100 100 100 28 41 69 96 99
100 99 100 100 100 100 100 100 100 100 100 100 78 97 92 94 100 100 100 100 100 100 100 100 100 100 100 93 33 85 99 100 90

GFSFLT1_prec_cloud_090.txt.gz
Cloud_Cover
5 5 5 6 97 11 12 5 15 5 56 100 100 100 29 5 4 0 17 27 6 30 50 11 100 86 17 10 13 14 14 100 100
5 5 5 5 5 6 5 43 5 36 42 9 5 15 5 2 2 28 16 6 80 41 32 5 24 99 94 99 100 100 26 100 16
0 0 6 5 5 5 5 4 0 2 10 0 2 5 5 8 71 91 28 6 25 57 6 0 0 25 22 27 22 35 11 9 0
0 0 1 1 1 2 5 0 0 0 2 0 0 1 53 45 98 13 5 17 95 15 0 0 0 0 0 0 0 0 0 0 0
0 0 0 0 0 0 0 0 0 0 0 0 0 0 81 100 44 30 11 5 5 0 0 0 0 0 0 0 0 0 0 0 0
0 0 0 0 0 0 0 0 0 0 0 0 0 2 100 100 60 6 49 28 17 0 0 0 0 0 0 0 0 0 0 0 0
0 0 0 0 0 0 0 0 0 0 0 0 0 0 37 58 58 79 100 7 0 0 5 4 3 0 0 0 0 0 0 0 0
17 18 5 2 0 0 0 0 0 0 0 0 0 1 57 77 24 44 14 0 4 5 5 5 5 4 5 2 0 0 0 0 0
23 28 14 11 6 2 0 1 0 0 0 0 0 5 11 38 39 66 5 5 5 5 5 7 35 9 0 5 0 4 0 0 0
20 15 15 12 4 6 0 0 0 0 0 2 4 4 4 5 5 5 5 5 5 20 56 100 100 5 34 41 18 1 0 3 5
24 5 6 4 2 3 0 0 0 1 5 5 5 6 5 5 5 5 5 5 5 7 100 100 8 5 5 8 11 92 60 58 5
99 20 5 5 5 5 4 1 4 5 32 28 44 6 5 5 5 5 5 5 18 100 100 61 71 28 21 36 96 34 74 96 16
100 99 100 23 7 5 5 5 11 47 15 30 14 22 100 100 100 20 52 100 100 100 100 45 98 44 7 66 32 59 17 39 66
100 100 100 100 94 48 28 40 46 86 90 100 100 100 100 97 88 12 90 100 93 98 90 100 100 100 100 100 100 100 100 98 6
100 100 100 100 100 100 100 99 100 100 100 100 100 100 100 100 100 100 100 86 96 49 83 58 83 46 100 100 100 100 100 24 5
100 100 100 100 100 100 100 100 100 100 100 100 84 100 99 98 81 98 93 67 12 99 100 100 100 100 100 100 100 100 5 5 27
100 100 100 100 100 100 100 100 100 100 100 100 100 100 100 46 37 84 6 6 16 98 100 100 98 100 100 100 100 88 7 6 5
100 100 100 100 100 100 100 100 100 100 100 94 97 100 100 100 100 96 90 10 12 92 100 100 100 100 100 100 98 76 78 100 5
100 100 100 97 96 90 93 99 99 99 100 100 100 100 100 100 100 100 40 53 96 100 100 100 100 100 100 100 100 100 100 78 40
100 100 100 100 100 100 100 100 100 100 99 100 100 99 98 93 100 100 100 100 100 100 100 100 100 100 100 100 100 100 5 40 100

GFSFLT1_prec_cloud_093.txt.gz
Cloud_Cover
4 0 5 23 5 5 5 3 0 5 5 13 6 100 53 5 17 33 5 5 5 22 5 22 83 45 1 30 100 86 12 100 4
0 40 97 13 0 5 4 5 5 4 5 0 5 5 17 0 1 5 6 21 62 26 5 5 3 8 56 70 82 86 26 7 0
0 62 60 62 98 7 4 3 0 0 0 0 0 1 3 0 0 3 33 58 51 10 5 5 5 1 4 18 7 4 0 1 0
0 2 4 0 3 4 0 0 0 0 0 0 0 0 0 0 0 20 93 100 50 29 62 8 2 0 0 0 0 0 0 0 0
0 0 0 2 0 0 0 0 0 0 0 0 0 0 0 0 0 9 100 100 100 100 98 5 0 0 0 0 0 4 0 0 0
0 0 0 0 0 0 0 0 0 0 0 0 0 0 0 0 0 0 87 100 100 100 38 4 0 2 0 0 4 1 0 0 0
0 0 0 0 0 0 0 0 0 0 0 0 0 0 0 0 0 2 11 97 44 4 0 0 4 4 2 4 5 5 4 0 0
13 15 4 2 0 0 0 0 0 0 0 0 0 0 0 2 1 4 2 5 1 5 5 5 5 5 5 5 5 5 0 0 4
31 28 18 16 13 4 0 6 1 5 5 0 0 0 0 4 5 5 5 5 5 5 5 5 23 7 9 5 5 4 5 5 9
24 22 20 17 10 8 0 0 5 5 5 5 9 5 5 7 7 5 5 5 5 5 8 41 11 5 62 56 67 54 32 4 5
26 100 100 100 92 5 9 5 5 2 5 5 14 5 5 5 5 5 5 5 5 8 99 66 14 51 14 5 5 5 15 92 7
97 100 100 100 100 35 5 5 5 5 5 5 5 5 5 51 58 41 12 8 33 98 97 99 38 25 5 19 17 6 5 5 5
100 100 100 100 98 74 95 40 10 18 26 9 55 89 92 100 100 100 100 97 100 100 99 100 56 8 5 5 5 14 5 5 5
100 100 100 100 98 81 98 100 100 100 100 100 100 100 100 68 99 62 32 42 63 89 100 65 55 46 99 72 57 51 9 11 29
100 100 100 100 100 100 97 100 100 100 100 100 100 100 100 73 64 16 5 92 100 100 100 100 73 70 92 100 100 100 70 96 75
100 100 100 100 100 100 100 100 100 100 100 100 91 100 98 95 100 98 80 100 100 99 98 86 100 100 100 100 100 100 100 100 100
100 100 100 100 100 100 100 100 100 100 100 100 100 99 65 70 84 100 100 100 82 87 100 100 100 95 86 100 100 73 100 100 100
100 100 100 100 100 100 99 77 100 99 73 60 53 91 100 100 100 100 64 74 98 38 62 99 100 85 88 100 100 100 100 100 100
100 100 100 100 100 100 100 100 100 100 100 62 100 100 100 100 100 100 100 94 100 100 100 100 100 100 100 100 100 100 100 100 100
99 100 100 100 100 100 100 100 100 100 100 100 100 82 99 99 87 100 100 100 89 100 100 100 100 100 100 100 100 100 100 100 100

GFSFLT1_prec_cloud_096.txt.gz
Cloud_Cover
5 77 28 5 32 16 15 0 8 13 4 5 5 3 0 2 5 0 0 0 3 5 5 5 6 7 5 3 11 0 0 0 0
2 9 3 0 9 6 13 0 11 18 0 0 0 0 0 4 0 0 0 0 3 5 28 5 5 5 5 0 0 1 0 0 0
52 15 20 21 15 4 8 5 6 0 0 0 0 0 0 0 0 0 0 0 1 44 100 30 72 6 1 0 0 5 0 0 0
100 100 100 95 93 22 20 5 0 0 0 0 0 0 0 0 0 0 0 0 0 7 8 100 38 2 0 5 1 5 0 3 0
98 78 70 8 13 2 0 0 0 0 0 0 0 0 0 0 0 0 0 0 0 1 2 5 1 4 5 5 5 3 5 5 2
5 5 0 0 0 0 0 0 0 0 0 0 0 0 0 0 0 0 0 0 0 0 1 5 3 5 5 5 5 2 5 5 2
5 5 3 0 3 0 0 0 0 0 0 0 0 1 2 5 5 5 5 1 0 4 0 5 5 5 5 5 5 5 5 5 4
6 10 8 5 5 5 4 0 3 0 0 0 0 5 5 5 5 6 5 5 5 5 5 5 5 5 5 13 42 5 5 5 5
25 24 11 7 13 5 5 5 1 0 0 0 0 0 2 5 5 5 7 5 5 5 5 5 5 12 38 66 11 5 5 5 5
100 26 22 21 12 13 74 94 84 13 4 4 3 5 1 0 2 3 4 5 5 6 13 43 9 46 6 41 45 12 79 49 5
100 96 40 51 15 6 26 61 100 58 5 3 4 5 5 5 5 5 9 5 14 67 100 26 5 45 98 98 8 6 57 9 22
100 89 100 100 86 95 80 62 70 98 15 11 51 10 96 93 46 98 55 97 38 100 100 99 80 73 100 50 40 5 10 5 11
100 100 90 96 100 100 100 100 100 99 40 74 100 100 100 100 100 99 95 100 100 100 100 100 100 100 94 24 8 51 5 5 5
41 94 100 96 100 99 100 100 100 100 100 100 100 100 100 80 5 8 33 21 27 100 100 98 9 91 89 36 94 26 5 5 36
100 100 94 100 100 100 100 71 100 100 100 100 100 100 97 11 39 48 44 5 14 24 100 53 78 99 96 68 5 33 5 11 86
100 100 100 100 100 100 100 100 100 100 100 90 10 21 25 29 68 62 5 5 11 55 80 100 61 91 86 99 86 20 92 97 100
100 96 78 100 100 100 100 100 100 100 100 100 100 83 100 70 20 5 36 32 100 87 24 20 41 100 81 80 14 46 100 100 100
100 100 100 100 100 100 100 100 100 100 78 60 50 93 92 92 52 7 59 5 5 12 53 71 92 63 71 99 100 100 100 100 100
100 100 100 100 100 100 100 100 100 100 100 100 90 100 99 100 100 86 74 85 94 87 100 100 100 100 100 100 100 100 100 100 100
100 100 100 100 100 100 100 100 100 100 100 95 100 100 94 37 84 98 100 57 100 100 100 100 100 100 100 100 100 100 100 100 100

GFSFLT1_prec_cloud_099.txt.gz
Cloud_Cover
5 19 44 98 100 93 9 8 15 14 5 2 0 0 0 0 0 0 0 0 0 0 0 4 5 5 20 5 4 0 5 5 0
5 54 0 85 61 27 13 0 5 0 0 6 0 0 0 0 0 0 0 0 0 0 0 0 0 0 2 0 5 3 5 1 4
100 54 67 100 23 7 1 7 10 0 0 5 0 0 0 0 0 0 0 0 0 0 0 0 0 0 0 4 5 5 4 5 5
26 7 23 89 84 21 0 6 15 0 0 0 0 0 0 0 0 0 0 0 0 0 0 0 1 5 5 5 5 5 5 5 5
100 100 100 100 89 17 22 22 0 0 0 0 0 0 0 0 0 0 0 0 0 3 3 5 5 5 5 5 5 5 19 5 6
68 10 26 5 5 5 5 3 0 0 0 0 0 0 0 0 0 0 0 0 0 0 0 0 5 5 5 5 4 4 8 6 12
7 11 5 5 6 6 5 5 0 2 0 0 0 0 0 0 0 0 0 0 2 5 3 5 5 5 5 5 2 5 5 24 5
95 65 5 5 6 9 5 5 5 0 0 1 3 0 0 5 0 5 0 5 5 10 2 4 5 5 5 5 14 27 41 59 5
100 100 99 73 5 5 5 5 0 0 4 27 94 27 4 5 0 0 1 5 5 5 0 3 5 5 13 6 11 92 84 19 75
100 100 100 100 67 5 5 2 2 1 5 5 91 10 4 0 2 4 4 5 5 5 5 6 5 25 5 59 95 64 17 92 56
100 100 100 100 98 81 92 88 40 18 32 60 91 52 6 5 5 12 83 100 96 90 80 97 4 34 49 98 14 14 10 64 5
100 100 94 100 100 99 39 34 63 45 99 100 100 100 100 35 72 93 100 100 32 80 89 86 53 8 5 5 5 6 39 5 3
88 84 97 100 100 78 5 5 14 18 8 37 100 100 100 100 100 100 98 96 43 38 28 85 4 7 5 5 4 5 5 5 5
95 99 57 20 70 99 96 96 60 52 30 91 97 25 99 100 34 98 12 96 35 4 5 8 5 5 5 10 40 5 5 9 5
74 73 37 35 48 94 100 100 89 100 100 71 34 28 100 96 5 4 47 2 36 5 5 5 33 68 5 5 48 100 5 42 13
80 98 31 66 100 96 60 88 100 96 66 66 82 92 92 71 94 25 21 34 5 5 43 43 46 20 19 28 69 47 22 11 9
96 62 100 100 100 100 69 100 100 98 88 99 98 100 42 98 92 5 2 3 7 5 7 5 5 47 71 100 84 78 100 39 100
100 100 100 40 97 70 100 100 100 89 97 87 24 99 95 11 39 16 4 4 4 14 3 6 26 89 94 76 97 100 100 100 100
100 100 100 100 100 100 100 100 100 100 100 97 86 42 92 96 94 60 5 5 5 5 5 8 44 97 100 100 100 100 51 96 100
100 100 100 100 100 100 100 100 100 100 100 79 73 25 100 63 74 51 100 92 24 62 98 39 98 89 86 98 77 100 100 100 100

GFSFLT1_prec_cloud_102.txt.gz
Cloud_Cover
20 12 99 80 100 96 5 3 5 5 6 0 0 0 0 0 0 0 0 0 0 0 0 0 0 0 0 0 5 5 5 5 5
56 91 100 100 100 5 0 2 7 3 11 0 0 0 0 0 0 0 0 0 0 0 0 0 0 0 0 0 5 5 5 5 5
100 42 88 98 18 3 3 8 5 5 8 0 0 0 0 0 0 0 0 0 0 0 2 2 1 3 0 0 5 9 9 5 5
100 100 100 82 94 6 0 11 5 1 19 0 0 0 0 0 0 0 0 4 1 5 5 5 5 5 4 5 5 5 26 5 5
100 88 100 100 56 5 5 17 5 5 5 5 0 0 0 0 0 0 2 5 5 5 5 5 1 0 3 0 5 5 5 5 5
74 77 100 99 39 25 14 5 5 5 5 5 5 1 0 0 0 0 5 5 5 5 5 5 3 2 5 4 13 14 5 67 59
95 53 74 5 5 23 5 5 5 5 5 5 5 5 2 3 0 4 4 2 6 5 40 5 3 0 2 2 5 5 55 100 94
100 100 100 100 98 65 5 5 5 5 5 5 4 2 5 20 100 5 0 1 0 6 3 16 14 4 0 4 5 5 5 5 5
100 58 93 100 100 98 91 100 9 5 5 5 5 14 4 78 32 66 5 0 2 3 86 100 53 40 3 5 5 5 5 5 5
100 97 97 100 93 100 100 100 5 5 3 0 5 7 5 17 100 22 9 5 2 66 100 100 73 5 5 9 39 5 5 5 8
100 81 66 90 84 94 100 62 16 5 30 7 5 5 5 5 79 100 63 18 100 100 100 97 5 5 33 11 22 4 23 67 29
100 100 97 94 100 68 31 100 85 5 6 5 5 0 4 7 41 79 94 100 5 7 1 13 31 35 5 65 5 11 5 41 22
100 84 100 95 5 53 96 61 5 17 7 8 17 10 24 17 2 4 6 23 87 56 5 1 0 5 52 70 32 83 5 73 25
100 90 100 96 79 15 17 64 15 71 82 58 95 81 95 27 23 13 8 29 26 15 43 4 4 5 72 44 5 7 71 47 90
100 100 100 100 99 49 62 16 16 42 100 34 20 79 96 69 83 81 5 4 5 4 4 6 54 66 10 0 6 42 96 5 89
100 100 100 100 69 30 7 5 63 100 68 39 75 22 9 83 61 83 4 3 7 38 82 45 100 44 3 10 13 6 27 43 93
93 100 100 71 39 16 5 19 88 97 60 40 6 6 37 4 45 37 18 5 3 14 19 75 76 74 41 20 24 100 89 6 66
100 100 100 96 68 86 27 42 35 29 50 26 33 68 36 5 5 5 5 5 5 5 1 8 13 22 37 58 28 84 59 5 5
100 100 100 100 100 99 100 99 100 100 100 100 96 94 100 100 94 49 10 5 5 5 25 47 5 4 5 12 100 100 74 21 66
100 100 100 100 100 100 100 100 100 100 100 100 100 100 100 100 98 97 97 21 6 12 6 50 5 5 5 31 5 91 100 100 100

GFSFLT1_prec_cloud_105.txt.gz
Cloud_Cover
22 74 5 27 99 52 5 42 5 5 5 0 0 0 0 0 0 0 0 0 0 5 5 5 5 5 5 5 5 4 5 5 0
22 44 15 83 43 15 5 5 46 5 1 0 5 5 3 0 0 0 0 0 4 5 5 5 5 6 5 6 5 5 5 3 0
96 100 100 100 25 6 14 5 5 10 0 0 0 0 0 3 0 0 3 4 5 5 5 51 88 44 6 5 21 6 5 5 0
93 100 100 83 9 3 13 1 5 9 2 2 0 1 0 4 5 9 5 5 5 5 5 6 18 52 17 50 5 6 5 4 0
100 100 100 98 7 6 1 3 5 11 2 5 5 5 5 5 4 5 11 24 8 47 5 5 5 5 92 48 5 5 5 5 5
100 100 100 100 33 97 38 17 1 0 4 4 4 5 5 5 5 13 5 5 29 5 5 5 5 5 97 98 13 5 21 5 5
5 70 100 100 82 67 99 100 38 5 2 2 0 1 5 5 5 4 5 100 28 5 4 5 4 100 100 100 5 5 23 5 5
33 94 85 94 100 35 99 100 99 26 11 5 5 5 5 5 5 6 15 5 5 5 23 5 97 100 88 80 6 5 53 5 26
8 86 100 100 100 11 5 80 98 19 41 81 5 5 5 1 1 1 5 5 5 1 4 100 95 72 16 7 24 11 6 78 5
37 95 100 100 100 98 66 6 5 100 100 96 42 4 5 5 5 10 5 5 19 95 48 5 5 28 20 21 80 9 21 55 26
100 100 100 100 100 100 23 6 6 100 100 36 29 61 23 62 6 48 24 4 4 100 5 5 5 32 98 5 34 86 17 71 9
100 100 100 100 100 100 68 7 100 61 53 53 40 21 20 41 62 78 46 10 0 0 0 4 0 5 5 3 5 58 6 47 100
100 100 100 100 100 100 100 100 42 11 12 23 22 18 44 27 65 25 9 90 64 55 5 5 6 4 11 2 93 49 64 97 100
100 100 100 100 100 100 100 92 26 5 13 11 64 99 15 27 4 17 26 2 20 5 25 4 12 0 0 36 41 71 74 100 100
100 100 100 100 100 100 94 32 8 11 56 96 56 66 80 100 33 47 2 5 5 3 4 26 19 0 0 17 28 6 100 100 100
100 100 100 100 100 99 100 14 5 36 48 97 96 100 47 5 5 3 22 0 5 5 5 97 90 21 43 60 17 92 16 31 79
100 100 100 100 100 100 94 100 71 6 10 5 17 79 27 96 25 63 13 38 4 5 5 34 100 100 100 74 42 3 0 77 56
100 100 100 100 100 100 100 100 100 58 87 93 38 98 100 92 46 16 5 5 5 5 5 5 13 61 30 42 6 56 5 43 13
100 100 100 100 100 100 100 100 100 64 93 93 92 86 93 70 60 99 93 78 58 53 5 5 5 5 8 93 5 0 1 43 5
100 100 100 100 100 100 100 100 100 100 100 100 100 100 100 100 100 100 100 100 68 82 80 59 94 51 97 91 40 4 5 85 91

GFSFLT1_prec_cloud_108.txt.gz
Cloud_Cover
5 5 48 68 89 45 11 5 5 5 5 5 5 5 0 0 0 0 0 0 3 5 38 44 5 36 5 97 62 5 5 5 0
2 5 45 61 46 21 5 5 5 5 3 5 5 5 2 0 0 0 0 5 3 5 48 6 5 5 5 40 99 14 5 5 5
0 33 12 98 85 94 10 2 3 1 0 0 2 2 0 0 3 1 2 0 0 5 29 5 5 5 5 16 54 44 5 5 5
98 97 100 100 86 5 22 14 5 1 0 0 0 0 0 0 0 3 5 0 4 5 5 5 5 5 5 11 31 30 84 5 5
100 100 100 76 39 4 4 0 3 4 4 4 0 3 1 0 0 4 4 5 5 5 30 14 0 5 5 16 84 47 94 72 24
100 100 100 100 3 9 2 5 9 11 100 12 5 5 0 0 4 5 2 5 5 3 86 4 5 2 5 9 13 20 77 89 27
100 100 100 100 77 99 75 100 100 100 100 83 8 5 0 5 2 2 2 5 4 0 5 5 5 5 39 32 10 5 6 13 48
86 88 100 100 59 33 68 100 100 60 72 90 53 4 5 5 2 1 0 1 0 0 5 5 87 79 9 5 5 4 3 6 33
8 59 95 67 50 74 100 100 100 67 22 5 11 88 100 99 13 0 0 3 4 3 5 5 5 22 52 32 5 4 1 4 5
11 64 73 100 54 100 100 100 100 100 100 80 9 100 100 22 27 3 5 5 2 4 3 5 4 74 13 98 5 2 0 5 6
100 75 93 100 100 100 100 100 100 100 100 8 66 95 74 45 9 5 18 28 5 17 3 1 5 5 51 56 4 3 3 5 5
100 100 100 100 100 100 100 100 100 99 18 29 82 85 54 98 100 100 100 4 3 94 6 0 3 7 46 14 8 22 37 47 13
100 100 99 100 100 100 100 100 97 100 100 91 94 7 29 51 95 96 10 100 100 28 0 0 0 5 45 7 5 26 100 70 100
100 100 100 100 100 100 100 100 100 100 100 100 88 98 100 48 88 9 60 71 4 3 0 0 5 5 5 6 25 86 100 32 100
100 100 100 100 100 100 100 100 100 99 93 93 61 27 12 5 100 99 30 5 0 0 0 0 1 5 27 53 35 8 100 11 9
100 100 100 100 100 98 100 100 100 100 100 100 100 100 15 100 34 5 4 5 35 5 0 14 100 5 58 100 46 76 100 5 7
100 100 100 100 100 100 100 100 100 100 100 98 91 63 68 98 5 5 4 70 14 4 5 28 23 19 97 100 100 98 0 22 46
100 100 100 100 100 100 100 100 100 100 100 100 100 100 100 85 91 55 26 57 72 100 14 7 26 89 97 100 100 71 5 5 46
100 100 100 100 100 100 100 100 100 100 100 100 100 100 99 84 100 100 100 75 34 43 35 6 5 5 8 69 59 33 59 20 24
100 100 100 100 100 100 100 100 100 100 100 100 100 100 100 100 99 94 100 99 5 58 65 66 5 5 96 100 98 67 100 77 36

GFSFLT1_prec_cloud_111.txt.gz
Cloud_Cover
58 5 5 0 4 5 27 7 0 0 0 2 5 1 0 0 0 0 0 0 0 0 3 5 62 5 5 10 5 34 6 34 92
5 5 0 5 5 5 5 5 3 0 0 0 0 0 0 0 0 0 0 0 0 0 0 5 5 5 5 5 11 5 5 62 96
5 5 0 2 5 5 5 79 22 0 0 0 0 0 0 0 0 0 0 0 0 0 0 5 5 24 5 10 8 5 5 5 82
5 19 3 5 74 2 4 10 5 5 2 0 0 0 0 0 0 0 0 0 0 0 2 0 5 52 5 52 74 7 56 33 5
78 87 15 99 5 5 1 4 5 5 5 5 5 7 8 0 0 0 0 0 0 3 5 3 0 5 5 7 64 92 54 34 66
100 100 100 100 23 11 67 17 8 47 100 99 100 100 20 5 0 3 5 0 4 5 5 5 0 3 3 38 91 79 58 49 57
100 100 100 91 33 83 95 77 78 20 96 100 100 100 16 7 3 2 5 1 5 5 4 0 4 0 5 27 90 100 92 50 20
100 100 100 90 6 100 100 70 19 96 100 100 100 89 98 10 52 57 7 5 5 5 7 4 0 2 5 15 100 100 16 17 5
100 100 100 80 28 99 100 38 14 72 100 100 100 100 12 5 5 89 59 5 5 2 5 1 5 5 5 100 96 93 49 80 77
100 100 100 31 30 74 82 40 72 100 100 100 96 77 100 47 71 98 34 5 2 4 0 5 2 9 5 72 100 12 5 43 100
100 100 100 100 100 100 100 99 100 100 100 100 100 80 30 5 5 41 9 13 5 2 0 5 5 5 5 21 83 83 76 60 100
100 100 100 100 100 100 100 100 100 100 100 100 100 100 78 86 94 100 88 26 0 94 73 0 5 5 5 5 74 100 93 97 100
100 100 100 100 100 100 100 100 100 100 100 100 95 99 81 77 79 100 91 25 100 85 3 0 5 5 5 19 93 91 99 100 20
100 100 100 100 100 100 100 100 100 100 100 100 100 100 92 97 100 100 39 74 25 5 0 0 4 4 5 6 53 49 62 10 72
100 100 100 100 100 100 100 50 100 100 100 100 100 100 100 100 100 22 100 63 5 3 0 0 3 5 5 5 94 14 5 38 56
100 100 100 100 100 100 100 100 100 100 100 100 91 82 100 63 100 100 100 96 9 2 0 0 4 3 41 100 100 84 100 80 5
100 100 100 100 100 100 100 94 100 99 80 100 100 100 66 100 100 100 100 98 30 5 5 6 5 5 95 98 99 100 100 97 7
100 100 100 100 100 99 86 100 100 100 96 100 100 100 100 100 100 100 100 100 67 7 44 5 5 5 5 6 82 95 100 100 99
100 100 100 100 100 100 100 100 100 100 100 100 100 100 100 100 100 100 88 100 70 53 35 6 5 5 5 5 8 5 6 94 100
100 100 100 100 100 100 100 100 100 100 100 100 100 100 100 100 100 100 86 100 100 99 20 68 84 97 97 63 5 8 8 52 87

GFSFLT1_prec_cloud_114.txt.gz
Cloud_Cover
88 4 35 56 4 0 4 5 25 5 5 5 0 0 0 0 0 0 0 0 0 0 0 0 5 5 5 10 99 34 99 43 16
1 3 6 100 20 0 5 5 76 6 5 5 2 0 0 0 0 0 0 0 0 0 0 2 5 5 5 5 88 74 73 100 11
5 22 5 7 26 5 5 3 5 48 66 5 0 0 2 0 0 0 0 0 0 0 0 2 5 5 5 5 6 97 87 81 100
5 10 8 5 5 5 5 5 5 4 7 5 5 4 5 5 5 5 0 4 5 2 0 5 5 3 0 2 5 19 98 100 64
5 5 3 5 5 5 44 54 98 96 10 5 6 27 8 96 37 5 5 3 5 0 5 4 4 5 5 5 5 49 100 100 5
13 70 5 67 5 5 15 72 73 100 88 69 50 73 100 100 79 97 6 6 4 1 5 5 5 6 3 5 9 47 100 84 14
100 99 30 88 5 11 90 99 90 100 100 72 97 98 100 100 100 100 10 7 5 5 14 5 5 8 5 8 88 64 100 99 5
100 100 98 88 5 13 12 87 95 100 100 60 15 98 100 100 100 56 19 5 5 3 5 5 5 56 18 100 100 100 81 12 23
100 100 100 99 97 39 18 17 13 77 99 53 56 99 100 100 100 99 92 5 7 5 1 5 5 73 95 56 96 98 100 91 40
100 100 100 100 100 99 100 79 5 34 83 42 95 100 100 100 100 54 27 8 2 5 5 1 5 28 100 97 87 95 94 68 55
100 100 100 100 100 100 100 100 49 99 100 100 100 100 100 100 100 94 98 15 4 5 5 2 23 100 97 29 53 86 24 85 100
100 100 100 100 100 100 100 98 99 100 70 87 100 100 100 100 100 100 100 53 37 4 16 5 16 83 26 66 41 30 86 18 100
100 100 100 100 100 100 100 100 100 100 100 100 93 100 100 100 100 97 98 87 60 28 2 43 11 45 90 34 54 100 100 100 100
100 100 100 100 100 100 100 100 100 100 100 100 86 47 7 100 100 100 87 33 10 5 8 100 14 5 64 31 58 91 100 65 100
100 100 100 100 82 99 100 100 100 100 100 100 100 93 100 100 100 100 69 36 25 5 89 100 30 5 7 28 97 77 92 66 67
100 100 100 100 100 100 100 100 100 100 100 100 100 100 91 100 100 100 100 90 54 100 49 11 35 78 97 5 88 100 100 100 91
100 100 100 100 100 100 100 100 100 100 100 100 97 89 90 100 96 100 78 100 17 42 80 82 100 20 30 10 99 100 100 89 88
100 100 100 100 100 100 100 100 100 100 100 100 70 100 100 100 95 81 99 100 66 5 34 87 99 82 5 8 97 87 47 18 15
100 100 100 100 100 100 100 100 100 100 98 95 99 65 100 100 100 30 80 90 98 96 90 100 100 96 65 75 96 88 43 79 67
100 100 100 100 100 100 100 100 100 100 100 100 100 100 97 96 100 84 94 82 100 100 100 100 100 99 100 99 92 91 98 98 59

GFSFLT1_prec_cloud_117.txt.gz
Cloud_Cover
5 73 93 100 100 98 4 0 0 0 5 5 4 0 0 0 0 0 0 0 0 0 0 4 5 5 5 5 5 5 8 100 100
5 5 48 3 0 2 5 5 0 0 5 5 5 1 2 0 0 0 0 0 0 0 0 5 1 5 20 6 5 11 5 71 90
5 50 13 5 10 5 5 5 5 4 3 5 11 5 4 0 4 1 0 0 0 0 5 4 4 5 46 55 24 5 5 77 96
5 8 73 46 5 5 5 5 5 8 10 10 14 5 5 8 20 5 9 0 0 5 5 16 31 85 19 52 92 5 14 46 100
54 100 100 54 14 5 5 5 5 53 99 75 84 18 34 5 68 100 71 38 48 5 5 88 100 94 5 95 100 100 90 100 71
20 40 94 46 10 5 5 7 6 17 98 99 100 90 7 15 94 100 100 100 100 5 5 10 68 76 7 94 100 100 92 6 67
100 41 22 72 9 5 52 42 88 67 92 91 100 100 67 8 23 100 100 100 100 77 3 5 95 15 61 100 84 97 98 64 100
100 100 99 55 81 28 45 99 100 84 48 79 85 97 100 41 6 100 100 100 91 18 12 5 5 83 77 100 100 75 89 83 42
100 100 100 95 75 97 99 100 100 100 63 39 15 85 34 58 54 100 100 100 92 5 5 5 5 92 100 100 100 100 100 100 98
100 100 100 100 65 100 44 100 100 100 100 100 96 54 89 100 100 100 100 100 100 100 20 6 5 5 93 100 99 98 100 99 66
100 100 99 99 100 97 20 35 100 100 100 100 100 100 100 100 56 30 99 100 100 61 40 5 22 71 99 100 100 100 45 100 90
100 100 100 100 100 100 53 26 100 100 100 100 100 100 100 100 92 99 100 100 49 92 5 5 28 78 86 100 100 100 68 93 83
100 100 94 100 100 100 95 49 100 100 100 100 100 100 100 100 100 75 70 95 100 37 5 11 19 85 100 97 100 100 61 100 81
100 100 99 100 100 100 56 98 100 100 100 100 100 100 100 100 100 94 99 100 100 89 5 53 39 100 91 100 100 87 95 100 100
100 100 100 100 100 100 100 100 100 100 100 87 92 94 100 100 87 99 100 100 72 88 19 6 10 100 67 64 96 100 100 100 100
100 100 100 100 100 100 100 100 100 100 100 100 100 100 100 100 100 97 100 96 20 55 14 11 74 99 100 100 100 98 100 100 100
100 100 100 100 100 100 100 100 100 100 100 100 100 100 100 100 95 77 87 98 78 82 67 19 98 100 100 99 100 93 100 60 100
100 100 100 100 100 100 100 100 100 100 100 100 100 100 100 100 87 100 96 88 91 92 60 51 48 89 100 100 100 100 100 65 99
100 100 100 100 100 99 100 100 100 100 100 100 100 100 100 94 100 86 81 65 29 97 98 82 95 95 98 96 100 90 96 100 91
100 100 100 100 100 100 96 100 100 100 100 100 100 100 100 100 100 99 77 53 93 96 69 98 100 97 100 100 100 100 100 100 100

GFSFLT1_prec_cloud_120.txt.gz
Cloud_Cover
5 33 82 98 100 91 5 9 0 0 5 0 5 1 0 0 0 0 0 0 3 0 1 5 10 5 16 5 19 45 19 38 5
11 46 89 100 97 96 7 5 17 5 5 2 5 0 2 4 0 0 5 5 0 0 5 5 5 78 96 71 66 89 100 99 5
18 72 49 90 23 5 17 6 5 8 25 5 5 5 3 4 5 1 7 5 5 5 5 9 7 88 99 76 81 86 84 99 6
5 6 85 74 64 6 5 7 36 9 66 34 83 44 5 5 5 5 21 32 78 76 72 19 5 66 100 99 97 97 83 80 96
12 5 8 70 76 40 5 5 9 55 29 100 100 100 78 34 52 35 15 99 100 100 100 100 6 38 99 100 96 54 100 100 43
62 6 8 99 60 32 5 5 5 74 83 57 100 90 100 95 72 33 5 5 100 100 100 100 20 67 75 100 98 100 100 100 64
100 97 38 95 100 100 94 21 23 80 99 38 73 60 43 82 83 100 10 5 84 100 100 90 79 88 64 99 83 99 100 100 72
100 97 100 72 100 100 100 90 75 92 90 76 34 59 60 60 96 86 44 80 100 100 100 100 98 62 6 60 100 100 100 90 65
94 100 100 100 100 100 100 100 99 71 69 6 100 98 68 100 100 24 34 100 100 100 91 100 95 66 80 100 100 100 100 100 98
100 100 100 100 72 100 100 100 100 93 83 87 72 100 100 100 100 100 100 82 77 67 100 44 8 58 100 100 98 100 100 91 97
100 100 100 100 96 67 100 100 100 100 100 67 83 100 100 100 100 100 99 77 83 100 100 100 100 100 84 100 96 100 100 100 100
100 100 100 98 100 100 100 100 100 100 100 97 62 39 100 100 70 56 99 100 79 100 100 100 100 85 63 99 100 99 100 99 100
100 100 100 100 100 100 100 100 100 100 99 90 60 100 82 100 100 100 98 96 99 82 82 100 67 9 93 91 100 100 90 57 100
100 100 100 100 100 95 56 96 100 100 100 100 100 100 100 100 100 100 98 31 47 40 100 69 95 8 79 61 92 70 82 40 100
12 100 100 100 100 100 100 100 100 95 96 100 100 100 100 100 92 100 100 100 100 100 61 5 9 74 28 97 82 80 12 96 83
58 100 96 100 100 100 100 100 100 100 94 100 100 100 100 100 100 93 100 96 100 83 6 7 5 30 100 50 15 88 5 16 7
56 89 100 99 100 100 100 100 100 100 100 90 100 100 100 100 100 98 100 100 74 6 69 5 28 90 24 40 67 48 78 46 25
100 100 100 100 100 100 100 100 100 100 100 88 100 100 100 100 100 100 87 91 100 100 83 46 15 56 46 90 38 72 80 86 100
95 100 97 100 100 100 100 100 100 100 100 100 100 100 100 100 100 100 100 100 100 99 94 67 23 29 95 33 38 99 100 100 100
99 100 100 100 100 100 100 100 100 100 100 100 100 100 100 100 100 100 95 100 100 100 100 91 91 100 100 100 100 100 100 100 84